Darstellungsparameter: Aktuell verwendete Einstellungen:
Skalierung der Graphiken ... ?
xyx+y,   Skalierungsfaktor:      Skalierung: Modus: x, Faktor: 1
Darstellungszeitraum ... ?
Vom - - bis: - -   Zeitraum: 20.05.2022 - 24.05.2022
Min/Max/Avg-Anzeige ... ?
Zeige MMA aktuell
Zeige MMA Monat
Zeige MMA alles
Zeige --A aktuell
Zeige --A Monat
Zeige --A alles
Keine MMA-Anzeige
MMA:
Average (ber die Originaldaten)
MMA-Basis: 20.05.2022 - 24.05.2022
Quicknavigation für Darstellung... ?
Tage:      1T, 2T, 3T, 5T -1T -2T -3T -5T +1T +2T +3T +5T
Wochen: 1W, 2W, 3W -1W -2W -3W +1W +2W +3W
Monate: 1M, 3M, 6M -1M -3M -6M +1M +3M +6M
Jahre:    1J, 3J, 5J, 10J -1J -3J -5J -10J +1J +3J +5J +10J
Nutze für die Darstellung ... ?
Originaldaten oder Mittelwerte auf ...
Stundenbasis Tagesbasis Wochenbasis
Monatsbasis Jahresbasis      Datenbasis: Original-Daten
Darstellen als:
Statistik (Auto) Statistik J:M      Darstellung:
Zur Graphik,    zurück zur Übersicht aller Sensoren.
 
Tabellarische Datenbersicht: ?
 
Sensor: Nr:Datum:Temp:Abs-Feuchte:Windchill:Wind:
Aussen-T/F 1 20-05-2022 00:00:00 15.8 C 12.79 g/m*3 15.8 C 0 km/h
2 20-05-2022 00:05:00 15.8 C 12.79 g/m*3 15.8 C 0 km/h
3 20-05-2022 00:10:00 15.8 C 12.79 g/m*3 15.8 C 0 km/h
4 20-05-2022 00:15:00 15.8 C 12.79 g/m*3 15.8 C 0 km/h
5 20-05-2022 00:20:00 15.8 C 12.79 g/m*3 15.8 C 0 km/h
6 20-05-2022 00:25:00 15.8 C 12.79 g/m*3 15.8 C 0 km/h
7 20-05-2022 00:30:00 15.8 C 12.79 g/m*3 15.8 C 0 km/h
8 20-05-2022 00:35:00 15.8 C 12.79 g/m*3 15.8 C 0 km/h
9 20-05-2022 00:40:00 15.8 C 12.79 g/m*3 15.8 C 0 km/h
10 20-05-2022 00:45:00 15.8 C 12.79 g/m*3 15.8 C 0 km/h
11 20-05-2022 00:50:00 15.8 C 12.79 g/m*3 15.8 C 1.6 km/h
12 20-05-2022 00:55:00 15.8 C 12.79 g/m*3 15.8 C 1.6 km/h
13 20-05-2022 01:00:00 15.8 C 12.79 g/m*3 15.8 C 0 km/h
14 20-05-2022 01:05:00 15.8 C 12.79 g/m*3 15.8 C 0 km/h
15 20-05-2022 01:10:00 15.8 C 12.79 g/m*3 15.8 C 0 km/h
16 20-05-2022 01:15:00 15.7 C 12.71 g/m*3 15.7 C 0 km/h
17 20-05-2022 01:20:00 15.7 C 12.84 g/m*3 15.7 C 0 km/h
18 20-05-2022 01:25:00 15.7 C 12.71 g/m*3 15.7 C 0 km/h
19 20-05-2022 01:30:00 15.8 C 12.92 g/m*3 15.8 C 0 km/h
20 20-05-2022 01:35:00 15.8 C 12.92 g/m*3 15.8 C 3.2 km/h
21 20-05-2022 01:40:00 15.8 C 12.92 g/m*3 15.8 C 1.6 km/h
22 20-05-2022 01:45:00 15.8 C 12.92 g/m*3 15.8 C 1.6 km/h
23 20-05-2022 01:50:00 15.9 C 13 g/m*3 15.9 C 0 km/h
24 20-05-2022 01:55:00 15.9 C 13 g/m*3 15.9 C 0 km/h
25 20-05-2022 02:00:00 15.8 C 12.92 g/m*3 15.8 C 0 km/h
Sensor: Nr:Datum:Temp:Abs-Feuchte:Windchill:Wind:
Aussen-T/F 26 20-05-2022 02:05:00 15.7 C 12.71 g/m*3 15.7 C 0 km/h
27 20-05-2022 02:10:00 15.6 C 12.63 g/m*3 15.6 C 0 km/h
28 20-05-2022 02:15:00 15.5 C 12.69 g/m*3 15.5 C 0 km/h
29 20-05-2022 02:20:00 15.4 C 12.61 g/m*3 15.4 C 0 km/h
30 20-05-2022 02:25:00 15.4 C 12.61 g/m*3 15.4 C 0 km/h
31 20-05-2022 02:30:00 15.4 C 12.61 g/m*3 15.4 C 0 km/h
32 20-05-2022 02:35:00 15.4 C 12.61 g/m*3 15.4 C 0 km/h
33 20-05-2022 02:40:00 15.4 C 12.61 g/m*3 15.4 C 0 km/h
34 20-05-2022 02:45:00 15.4 C 12.61 g/m*3 15.4 C 0 km/h
35 20-05-2022 02:50:00 15.4 C 12.61 g/m*3 15.4 C 0 km/h
36 20-05-2022 02:55:00 15.4 C 12.61 g/m*3 15.4 C 0 km/h
37 20-05-2022 03:00:00 15.4 C 12.61 g/m*3 15.4 C 0 km/h
38 20-05-2022 03:05:00 15.4 C 12.61 g/m*3 15.4 C 0 km/h
39 20-05-2022 03:10:00 15.4 C 12.61 g/m*3 15.4 C 0 km/h
40 20-05-2022 03:15:00 15.4 C 12.61 g/m*3 15.4 C 0 km/h
41 20-05-2022 03:20:00 15.4 C 12.61 g/m*3 15.4 C 0 km/h
42 20-05-2022 03:25:00 15.4 C 12.61 g/m*3 15.4 C 0 km/h
43 20-05-2022 03:30:00 15.5 C 12.69 g/m*3 15.5 C 0 km/h
44 20-05-2022 03:35:00 15.5 C 12.69 g/m*3 15.5 C 0 km/h
45 20-05-2022 03:40:00 15.5 C 12.69 g/m*3 15.5 C 0 km/h
46 20-05-2022 03:45:00 15.6 C 12.77 g/m*3 15.6 C 0 km/h
47 20-05-2022 03:50:00 15.5 C 12.69 g/m*3 15.5 C 0 km/h
48 20-05-2022 03:55:00 15.5 C 12.69 g/m*3 15.5 C 0 km/h
49 20-05-2022 04:25:00 16 C 13.08 g/m*3 16 C 0 km/h
50 20-05-2022 04:30:00 16.1 C 13.16 g/m*3 16.1 C 0 km/h
Sensor: Nr:Datum:Temp:Abs-Feuchte:Windchill:Wind:
Aussen-T/F 51 20-05-2022 04:35:00 16.1 C 13.16 g/m*3 16.1 C 0 km/h
52 20-05-2022 04:40:00 16.2 C 13.24 g/m*3 16.2 C 0 km/h
53 20-05-2022 04:45:00 16.2 C 13.38 g/m*3 16.2 C 0 km/h
54 20-05-2022 04:50:00 16.2 C 13.38 g/m*3 16.2 C 0 km/h
55 20-05-2022 04:55:00 16.3 C 13.46 g/m*3 16.3 C 0 km/h
56 20-05-2022 05:00:00 16.3 C 13.46 g/m*3 16.3 C 0 km/h
57 20-05-2022 05:05:00 16.3 C 13.46 g/m*3 16.3 C 0 km/h
58 20-05-2022 05:10:00 16.4 C 13.54 g/m*3 16.4 C 3.2 km/h
59 20-05-2022 05:15:00 16.4 C 13.54 g/m*3 16.4 C 9.7 km/h
60 20-05-2022 05:20:00 16.4 C 13.4 g/m*3 16.4 C 11.3 km/h
61 20-05-2022 05:25:00 16.4 C 13.4 g/m*3 16.4 C 8.1 km/h
62 20-05-2022 05:30:00 16.4 C 13.54 g/m*3 16.4 C 6.4 km/h
63 20-05-2022 05:35:00 16.4 C 13.4 g/m*3 16.4 C 0 km/h
64 20-05-2022 05:40:00 16.4 C 13.4 g/m*3 16.4 C 0 km/h
65 20-05-2022 05:45:00 16.4 C 13.4 g/m*3 16.4 C 0 km/h
66 20-05-2022 05:50:00 16.4 C 13.4 g/m*3 16.4 C 0 km/h
67 20-05-2022 05:55:00 16.4 C 13.4 g/m*3 16.4 C 0 km/h
68 20-05-2022 06:00:00 16.4 C 13.4 g/m*3 16.4 C 0 km/h
69 20-05-2022 06:05:00 16.4 C 13.4 g/m*3 16.4 C 0 km/h
70 20-05-2022 06:10:00 16.3 C 13.46 g/m*3 16.3 C 0 km/h
71 20-05-2022 06:15:00 16.3 C 13.46 g/m*3 16.3 C 0 km/h
72 20-05-2022 06:20:00 16.4 C 13.4 g/m*3 16.4 C 0 km/h
73 20-05-2022 06:25:00 16.4 C 13.4 g/m*3 16.4 C 0 km/h
74 20-05-2022 06:30:00 16.4 C 13.4 g/m*3 16.4 C 0 km/h
75 20-05-2022 06:35:00 16.4 C 13.54 g/m*3 16.4 C 0 km/h
Sensor: Nr:Datum:Temp:Abs-Feuchte:Windchill:Wind:
Aussen-T/F 76 20-05-2022 06:40:00 16.4 C 13.54 g/m*3 16.4 C 0 km/h
77 20-05-2022 06:45:00 16.5 C 13.62 g/m*3 16.5 C 0 km/h
78 20-05-2022 06:50:00 16.5 C 13.62 g/m*3 16.5 C 0 km/h
79 20-05-2022 06:55:00 16.6 C 13.7 g/m*3 16.6 C 0 km/h
80 20-05-2022 07:00:00 16.5 C 13.62 g/m*3 16.5 C 0 km/h
81 20-05-2022 07:05:00 16.6 C 13.7 g/m*3 16.6 C 8.1 km/h
82 20-05-2022 07:10:00 16.6 C 13.7 g/m*3 16.6 C 8.1 km/h
83 20-05-2022 07:15:00 16.7 C 13.79 g/m*3 16.7 C 4.8 km/h
84 20-05-2022 07:20:00 16.7 C 13.79 g/m*3 16.7 C 1.6 km/h
85 20-05-2022 07:25:00 16.7 C 13.79 g/m*3 16.7 C 0 km/h
86 20-05-2022 07:30:00 16.7 C 13.79 g/m*3 16.7 C 0 km/h
87 20-05-2022 07:35:00 16.8 C 13.87 g/m*3 16.8 C 1.6 km/h
88 20-05-2022 07:40:00 16.9 C 13.95 g/m*3 16.9 C 1.6 km/h
89 20-05-2022 07:45:00 16.9 C 13.95 g/m*3 16.9 C 0 km/h
90 20-05-2022 07:50:00 16.9 C 13.95 g/m*3 16.9 C 0 km/h
91 20-05-2022 07:55:00 17 C 14.04 g/m*3 17 C 0 km/h
92 20-05-2022 08:00:00 17.1 C 14.12 g/m*3 17.1 C 0 km/h
93 20-05-2022 08:05:00 17.2 C 14.2 g/m*3 17.2 C 0 km/h
94 20-05-2022 08:10:00 17.2 C 14.2 g/m*3 17.2 C 0 km/h
95 20-05-2022 08:15:00 17.1 C 14.12 g/m*3 17.1 C 1.6 km/h
96 20-05-2022 08:20:00 17.1 C 14.12 g/m*3 17.1 C 0 km/h
97 20-05-2022 08:25:00 17.1 C 14.12 g/m*3 17.1 C 0 km/h
98 20-05-2022 08:30:00 17.1 C 14.12 g/m*3 17.1 C 1.6 km/h
99 20-05-2022 08:35:00 17.1 C 14.12 g/m*3 17.1 C 0 km/h
100 20-05-2022 08:40:00 17.2 C 14.2 g/m*3 17.2 C 0 km/h
Sensor: Nr:Datum:Temp:Abs-Feuchte:Windchill:Wind:
Aussen-T/F 101 20-05-2022 08:45:00 17.2 C 14.2 g/m*3 17.2 C 0 km/h
102 20-05-2022 08:50:00 17.3 C 14.29 g/m*3 17.3 C 0 km/h
103 20-05-2022 08:55:00 17.4 C 14.38 g/m*3 17.4 C 0 km/h
104 20-05-2022 09:00:00 17.6 C 14.55 g/m*3 17.6 C 0 km/h
105 20-05-2022 09:05:00 17.7 C 14.64 g/m*3 17.7 C 0 km/h
106 20-05-2022 09:10:00 17.8 C 14.72 g/m*3 17.8 C 1.6 km/h
107 20-05-2022 09:15:00 17.9 C 14.81 g/m*3 17.9 C 0 km/h
108 20-05-2022 09:20:00 18.1 C 14.99 g/m*3 18.1 C 0 km/h
109 20-05-2022 09:25:00 18.1 C 14.99 g/m*3 18.1 C 0 km/h
110 20-05-2022 09:30:00 18.2 C 15.08 g/m*3 18.2 C 0 km/h
111 20-05-2022 09:35:00 18.2 C 15.08 g/m*3 18.2 C 0 km/h
112 20-05-2022 09:40:00 18.2 C 15.08 g/m*3 18.2 C 0 km/h
113 20-05-2022 09:45:00 18.3 C 15.17 g/m*3 18.3 C 0 km/h
114 20-05-2022 09:50:00 18.4 C 15.26 g/m*3 18.4 C 1.6 km/h
115 20-05-2022 09:55:00 18.4 C 15.26 g/m*3 18.4 C 4.8 km/h
116 20-05-2022 10:00:00 18.5 C 15.35 g/m*3 18.5 C 0 km/h
117 20-05-2022 10:05:00 18.7 C 15.53 g/m*3 18.7 C 1.6 km/h
118 20-05-2022 10:10:00 18.7 C 15.53 g/m*3 18.7 C 3.2 km/h
119 20-05-2022 10:15:00 18.8 C 15.62 g/m*3 18.8 C 1.6 km/h
120 20-05-2022 10:20:00 18.9 C 15.71 g/m*3 18.9 C 1.6 km/h
121 20-05-2022 10:25:00 19.1 C 15.9 g/m*3 19.1 C 0 km/h
122 20-05-2022 10:30:00 19.3 C 16.09 g/m*3 19.3 C 4.8 km/h
123 20-05-2022 10:35:00 19.4 C 16.18 g/m*3 19.4 C 1.6 km/h
124 20-05-2022 10:40:00 19.6 C 16.38 g/m*3 19.6 C 0 km/h
125 20-05-2022 10:45:00 19.6 C 16.21 g/m*3 19.6 C 9.7 km/h
Sensor: Nr:Datum:Temp:Abs-Feuchte:Windchill:Wind:
Aussen-T/F 126 20-05-2022 10:50:00 19.7 C 16.3 g/m*3 19.7 C 8.1 km/h
127 20-05-2022 10:55:00 19.9 C 16.49 g/m*3 19.9 C 6.4 km/h
128 20-05-2022 11:00:00 19.9 C 16.32 g/m*3 19.9 C 1.6 km/h
129 20-05-2022 11:05:00 20.1 C 16.34 g/m*3 20.1 C 0 km/h
130 20-05-2022 11:10:00 20.3 C 16.53 g/m*3 20.3 C 6.4 km/h
131 20-05-2022 11:15:00 20.6 C 16.64 g/m*3 20.6 C 8.1 km/h
132 20-05-2022 11:20:00 20.8 C 16.66 g/m*3 20.8 C 4.8 km/h
133 20-05-2022 11:25:00 21.1 C 16.77 g/m*3 21.1 C 3.2 km/h
134 20-05-2022 11:30:00 21.3 C 17.15 g/m*3 21.3 C 3.2 km/h
135 20-05-2022 11:35:00 21.4 C 17.25 g/m*3 21.4 C 0 km/h
136 20-05-2022 11:40:00 21.7 C 17.17 g/m*3 21.7 C 3.2 km/h
137 20-05-2022 11:45:00 22 C 17.66 g/m*3 22 C 0 km/h
138 20-05-2022 11:50:00 22.2 C 17.08 g/m*3 22.2 C 6.4 km/h
139 20-05-2022 11:55:00 22.5 C 17.58 g/m*3 22.5 C 6.4 km/h
140 20-05-2022 12:00:00 22.5 C 17.18 g/m*3 22.5 C 6.4 km/h
141 20-05-2022 12:05:00 22.7 C 17.17 g/m*3 22.7 C 4.8 km/h
142 20-05-2022 12:10:00 22.8 C 17.07 g/m*3 22.8 C 1.6 km/h
143 20-05-2022 12:15:00 23.1 C 17.16 g/m*3 23.1 C 4.8 km/h
144 20-05-2022 12:20:00 23.2 C 17.05 g/m*3 23.2 C 6.4 km/h
145 20-05-2022 12:25:00 23.4 C 17.45 g/m*3 23.4 C 1.6 km/h
146 20-05-2022 12:30:00 23.5 C 17.76 g/m*3 23.5 C 1.6 km/h
147 20-05-2022 12:35:00 23.7 C 18.18 g/m*3 23.7 C 1.6 km/h
148 20-05-2022 12:40:00 23.7 C 17.33 g/m*3 23.7 C 4.8 km/h
149 20-05-2022 12:45:00 23.8 C 17.85 g/m*3 23.8 C 6.4 km/h
150 20-05-2022 12:50:00 23.8 C 17.64 g/m*3 23.8 C 4.8 km/h
Sensor: Nr:Datum:Temp:Abs-Feuchte:Windchill:Wind:
Aussen-T/F 151 20-05-2022 12:55:00 23.7 C 17.33 g/m*3 23.7 C 4.8 km/h
152 20-05-2022 13:00:00 23.7 C 17.33 g/m*3 23.7 C 6.4 km/h
153 20-05-2022 13:05:00 23.7 C 17.54 g/m*3 23.7 C 4.8 km/h
154 20-05-2022 13:10:00 23.8 C 17.42 g/m*3 23.8 C 3.2 km/h
155 20-05-2022 13:15:00 23.9 C 18.17 g/m*3 23.9 C 0 km/h
156 20-05-2022 13:20:00 23.9 C 18.6 g/m*3 23.9 C 0 km/h
157 20-05-2022 13:25:00 23.9 C 17.74 g/m*3 23.9 C 0 km/h
158 20-05-2022 13:30:00 24 C 17.84 g/m*3 24 C 0 km/h
159 20-05-2022 13:35:00 24 C 17.62 g/m*3 24 C 3.2 km/h
160 20-05-2022 13:40:00 24.1 C 18.38 g/m*3 24.1 C 1.6 km/h
161 20-05-2022 13:45:00 24 C 18.49 g/m*3 24 C 0 km/h
162 20-05-2022 13:50:00 23.9 C 18.6 g/m*3 23.9 C 1.6 km/h
163 20-05-2022 13:55:00 23.8 C 18.71 g/m*3 23.8 C 1.6 km/h
164 20-05-2022 14:00:00 23.7 C 18.61 g/m*3 23.7 C 3.2 km/h
165 20-05-2022 14:05:00 23.5 C 18.4 g/m*3 23.5 C 3.2 km/h
166 20-05-2022 14:10:00 23.3 C 17.77 g/m*3 23.3 C 11.3 km/h
167 20-05-2022 14:15:00 23.4 C 18.5 g/m*3 23.4 C 1.6 km/h
168 20-05-2022 14:20:00 23.7 C 19.04 g/m*3 23.7 C 1.6 km/h
169 20-05-2022 14:25:00 23.8 C 18.07 g/m*3 23.8 C 3.2 km/h
170 20-05-2022 14:30:00 24 C 18.71 g/m*3 24 C 4.8 km/h
171 20-05-2022 14:35:00 23.9 C 18.6 g/m*3 23.9 C 3.2 km/h
172 20-05-2022 14:40:00 23.9 C 19.04 g/m*3 23.9 C 3.2 km/h
173 20-05-2022 14:45:00 23.9 C 19.04 g/m*3 23.9 C 3.2 km/h
174 20-05-2022 14:50:00 23.9 C 19.25 g/m*3 23.9 C 1.6 km/h
175 20-05-2022 14:55:00 24 C 19.36 g/m*3 24 C 1.6 km/h
Sensor: Nr:Datum:Temp:Abs-Feuchte:Windchill:Wind:
Aussen-T/F 176 20-05-2022 15:00:00 24.1 C 19.47 g/m*3 24.1 C 0 km/h
177 20-05-2022 15:05:00 24.2 C 19.58 g/m*3 24.2 C 0 km/h
178 20-05-2022 15:10:00 24.2 C 19.36 g/m*3 24.2 C 1.6 km/h
179 20-05-2022 15:15:00 24.4 C 19.58 g/m*3 24.4 C 0 km/h
180 20-05-2022 15:20:00 24.6 C 19.81 g/m*3 24.6 C 1.6 km/h
181 20-05-2022 15:25:00 24.6 C 18.68 g/m*3 24.6 C 4.8 km/h
182 20-05-2022 15:30:00 24.8 C 19.8 g/m*3 24.8 C 3.2 km/h
183 20-05-2022 15:35:00 25 C 20.03 g/m*3 25 C 1.6 km/h
184 20-05-2022 15:40:00 25.1 C 19.21 g/m*3 25.1 C 6.4 km/h
185 20-05-2022 15:45:00 25.3 C 18.96 g/m*3 25.3 C 8.1 km/h
186 20-05-2022 15:50:00 25.7 C 19.39 g/m*3 25.7 C 1.6 km/h
187 20-05-2022 15:55:00 26.1 C 19.34 g/m*3 26.1 C 4.8 km/h
188 20-05-2022 16:00:00 26.3 C 18.81 g/m*3 26.3 C 12.9 km/h
189 20-05-2022 16:05:00 26.6 C 19.13 g/m*3 26.6 C 11.3 km/h
190 20-05-2022 16:10:00 26.7 C 18.22 g/m*3 26.7 C 9.7 km/h
191 20-05-2022 16:15:00 26.8 C 18.58 g/m*3 26.8 C 6.4 km/h
192 20-05-2022 16:20:00 26.7 C 17.97 g/m*3 26.7 C 11.3 km/h
193 20-05-2022 16:25:00 26.7 C 17.97 g/m*3 26.7 C 9.7 km/h
194 20-05-2022 16:30:00 26.7 C 18.48 g/m*3 26.7 C 6.4 km/h
195 20-05-2022 16:35:00 26.7 C 17.97 g/m*3 26.7 C 4.8 km/h
196 20-05-2022 16:40:00 26.6 C 18.12 g/m*3 26.6 C 4.8 km/h
197 20-05-2022 16:45:00 26.4 C 19.17 g/m*3 26.4 C 1.6 km/h
198 20-05-2022 16:50:00 26.2 C 18.96 g/m*3 26.2 C 1.6 km/h
199 20-05-2022 16:55:00 25.9 C 19.13 g/m*3 25.9 C 3.2 km/h
200 20-05-2022 17:00:00 25.5 C 18.94 g/m*3 25.5 C 1.6 km/h
Sensor: Nr:Datum:Temp:Abs-Feuchte:Windchill:Wind:
Aussen-T/F 201 20-05-2022 17:05:00 25.1 C 18.52 g/m*3 25.1 C 0 km/h
202 20-05-2022 17:10:00 24.7 C 18.33 g/m*3 24.7 C 1.6 km/h
203 20-05-2022 17:15:00 24.4 C 18.25 g/m*3 24.4 C 1.6 km/h
204 20-05-2022 17:20:00 24.1 C 18.16 g/m*3 24.1 C 6.4 km/h
205 20-05-2022 17:25:00 23.6 C 17.87 g/m*3 23.6 C 27.4 km/h
206 20-05-2022 17:30:00 22.4 C 15.89 g/m*3 22.4 C 27.4 km/h
207 20-05-2022 17:35:00 21.6 C 15.74 g/m*3 21.6 C 19.3 km/h
208 20-05-2022 17:40:00 20.8 C 15.21 g/m*3 20.8 C 9.7 km/h
209 20-05-2022 17:45:00 20.4 C 15.39 g/m*3 20.4 C 11.3 km/h
210 20-05-2022 17:50:00 20 C 15.21 g/m*3 20 C 6.4 km/h
211 20-05-2022 17:55:00 19.8 C 15.2 g/m*3 19.8 C 1.6 km/h
212 20-05-2022 18:00:00 19.7 C 15.45 g/m*3 19.7 C 1.6 km/h
213 20-05-2022 18:05:00 20.2 C 16.26 g/m*3 20.2 C 1.6 km/h
214 20-05-2022 18:10:00 20.6 C 16.47 g/m*3 20.6 C 1.6 km/h
215 20-05-2022 18:15:00 20.8 C 16.3 g/m*3 20.8 C 1.6 km/h
216 20-05-2022 18:20:00 20.7 C 15.84 g/m*3 20.7 C 3.2 km/h
217 20-05-2022 18:25:00 20.7 C 16.02 g/m*3 20.7 C 0 km/h
218 20-05-2022 18:30:00 20.6 C 15.93 g/m*3 20.6 C 0 km/h
219 20-05-2022 18:35:00 20.4 C 15.74 g/m*3 20.4 C 0 km/h
220 20-05-2022 18:40:00 20.3 C 15.65 g/m*3 20.3 C 0 km/h
221 20-05-2022 18:45:00 20.2 C 15.74 g/m*3 20.2 C 0 km/h
222 20-05-2022 18:50:00 20.2 C 15.74 g/m*3 20.2 C 0 km/h
223 20-05-2022 18:55:00 20 C 15.55 g/m*3 20 C 3.2 km/h
224 20-05-2022 19:00:00 19.8 C 15.54 g/m*3 19.8 C 6.4 km/h
225 20-05-2022 19:05:00 19.6 C 15.36 g/m*3 19.6 C 4.8 km/h
Sensor: Nr:Datum:Temp:Abs-Feuchte:Windchill:Wind:
Aussen-T/F 226 20-05-2022 19:10:00 19.4 C 15.18 g/m*3 19.4 C 1.6 km/h
227 20-05-2022 19:15:00 19.3 C 15.26 g/m*3 19.3 C 1.6 km/h
228 20-05-2022 19:20:00 19.2 C 15.34 g/m*3 19.2 C 4.8 km/h
229 20-05-2022 19:25:00 19.1 C 15.25 g/m*3 19.1 C 1.6 km/h
230 20-05-2022 19:30:00 19.1 C 15.25 g/m*3 19.1 C 0 km/h
231 20-05-2022 19:35:00 19 C 15.16 g/m*3 19 C 4.8 km/h
232 20-05-2022 19:40:00 18.9 C 15.23 g/m*3 18.9 C 4.8 km/h
233 20-05-2022 19:45:00 18.8 C 14.98 g/m*3 18.8 C 9.7 km/h
234 20-05-2022 19:50:00 18.8 C 14.98 g/m*3 18.8 C 1.6 km/h
235 20-05-2022 19:55:00 18.8 C 15.14 g/m*3 18.8 C 0 km/h
236 20-05-2022 20:00:00 18.8 C 15.14 g/m*3 18.8 C 1.6 km/h
237 20-05-2022 20:05:00 18.9 C 15.39 g/m*3 18.9 C 3.2 km/h
238 20-05-2022 20:10:00 18.9 C 15.23 g/m*3 18.9 C 6.4 km/h
239 20-05-2022 20:15:00 18.8 C 15.14 g/m*3 18.8 C 6.4 km/h
240 20-05-2022 20:20:00 18.7 C 15.05 g/m*3 18.7 C 6.4 km/h
241 20-05-2022 20:25:00 18.7 C 15.05 g/m*3 18.7 C 8.1 km/h
242 20-05-2022 20:30:00 18.7 C 15.05 g/m*3 18.7 C 6.4 km/h
243 20-05-2022 20:35:00 18.6 C 14.96 g/m*3 18.6 C 9.7 km/h
244 20-05-2022 20:40:00 18.6 C 14.96 g/m*3 18.6 C 6.4 km/h
245 20-05-2022 20:45:00 18.4 C 14.78 g/m*3 18.4 C 8.1 km/h
246 20-05-2022 20:50:00 18.4 C 14.78 g/m*3 18.4 C 4.8 km/h
247 20-05-2022 20:55:00 18.4 C 14.78 g/m*3 18.4 C 9.7 km/h
248 20-05-2022 21:00:00 18.3 C 14.7 g/m*3 18.3 C 4.8 km/h
249 20-05-2022 21:05:00 18.2 C 14.61 g/m*3 18.2 C 8.1 km/h
250 20-05-2022 21:10:00 18.1 C 14.52 g/m*3 18.1 C 6.4 km/h
Sensor: Nr:Datum:Temp:Abs-Feuchte:Windchill:Wind:
Aussen-T/F 251 20-05-2022 21:15:00 17.9 C 14.35 g/m*3 17.9 C 6.4 km/h
252 20-05-2022 21:20:00 17.7 C 14.18 g/m*3 17.7 C 19.3 km/h
253 20-05-2022 21:25:00 17.5 C 13.87 g/m*3 17.5 C 11.3 km/h
254 20-05-2022 21:30:00 17.3 C 13.55 g/m*3 17.3 C 11.3 km/h
255 20-05-2022 21:35:00 17.1 C 13.39 g/m*3 17.1 C 6.4 km/h
256 20-05-2022 21:40:00 16.9 C 13.23 g/m*3 16.9 C 11.3 km/h
257 20-05-2022 21:45:00 16.7 C 13.07 g/m*3 16.7 C 11.3 km/h
258 20-05-2022 21:50:00 16.4 C 12.56 g/m*3 16.4 C 11.3 km/h
259 20-05-2022 21:55:00 16.1 C 12.34 g/m*3 16.1 C 14.5 km/h
260 20-05-2022 22:00:00 15.8 C 12.11 g/m*3 15.8 C 16.1 km/h
261 20-05-2022 22:05:00 15.8 C 11.98 g/m*3 15.8 C 19.3 km/h
262 20-05-2022 22:10:00 15.6 C 11.97 g/m*3 15.6 C 8.1 km/h
263 20-05-2022 22:15:00 15.5 C 11.9 g/m*3 15.5 C 8.1 km/h
264 20-05-2022 22:20:00 15.3 C 11.88 g/m*3 15.3 C 6.4 km/h
265 20-05-2022 22:25:00 15.2 C 11.81 g/m*3 15.2 C 6.4 km/h
266 20-05-2022 22:30:00 15.2 C 11.81 g/m*3 15.2 C 1.6 km/h
267 20-05-2022 22:35:00 15.2 C 11.94 g/m*3 15.2 C 6.4 km/h
268 20-05-2022 22:40:00 15.3 C 12.01 g/m*3 15.3 C 6.4 km/h
269 20-05-2022 22:45:00 15.3 C 12.01 g/m*3 15.3 C 9.7 km/h
270 20-05-2022 22:50:00 15.3 C 12.01 g/m*3 15.3 C 8.1 km/h
271 20-05-2022 22:55:00 15.3 C 12.01 g/m*3 15.3 C 1.6 km/h
272 20-05-2022 23:00:00 15.3 C 12.01 g/m*3 15.3 C 1.6 km/h
273 20-05-2022 23:05:00 15.3 C 12.01 g/m*3 15.3 C 6.4 km/h
274 20-05-2022 23:10:00 15.2 C 11.94 g/m*3 15.2 C 6.4 km/h
275 20-05-2022 23:15:00 15.1 C 11.74 g/m*3 15.1 C 4.8 km/h
Sensor: Nr:Datum:Temp:Abs-Feuchte:Windchill:Wind:
Aussen-T/F 276 20-05-2022 23:20:00 15 C 11.67 g/m*3 15 C 11.3 km/h
277 20-05-2022 23:25:00 14.8 C 11.53 g/m*3 14.8 C 11.3 km/h
278 20-05-2022 23:30:00 14.6 C 11.26 g/m*3 14.6 C 11.3 km/h
279 20-05-2022 23:35:00 14.6 C 11.26 g/m*3 14.6 C 4.8 km/h
280 20-05-2022 23:40:00 14.5 C 11.19 g/m*3 14.5 C 4.8 km/h
281 20-05-2022 23:45:00 14.3 C 11.06 g/m*3 14.3 C 6.4 km/h
282 20-05-2022 23:50:00 14.1 C 10.92 g/m*3 14.1 C 4.8 km/h
283 20-05-2022 23:55:00 14 C 10.98 g/m*3 14 C 3.2 km/h
284 21-05-2022 00:00:00 14 C 10.98 g/m*3 14 C 6.4 km/h
285 21-05-2022 00:05:00 13.9 C 11.03 g/m*3 13.9 C 9.7 km/h
286 21-05-2022 00:10:00 13.8 C 10.72 g/m*3 13.8 C 14.5 km/h
287 21-05-2022 00:15:00 13.8 C 10.72 g/m*3 13.8 C 9.7 km/h
288 21-05-2022 00:20:00 13.7 C 10.66 g/m*3 13.7 C 6.4 km/h
289 21-05-2022 00:25:00 13.7 C 10.78 g/m*3 13.7 C 9.7 km/h
290 21-05-2022 00:30:00 13.6 C 10.47 g/m*3 13.6 C 6.4 km/h
291 21-05-2022 00:35:00 13.6 C 10.59 g/m*3 13.6 C 6.4 km/h
292 21-05-2022 00:40:00 13.5 C 10.41 g/m*3 13.5 C 11.3 km/h
293 21-05-2022 00:45:00 13.4 C 10.35 g/m*3 13.4 C 9.7 km/h
294 21-05-2022 00:50:00 13.4 C 10.35 g/m*3 13.4 C 9.7 km/h
295 21-05-2022 00:55:00 13.4 C 10.23 g/m*3 13.4 C 20.9 km/h
296 21-05-2022 01:00:00 13.3 C 10.05 g/m*3 13.3 C 19.3 km/h
297 21-05-2022 01:05:00 13.3 C 10.05 g/m*3 13.3 C 12.9 km/h
298 21-05-2022 01:10:00 13.1 C 9.93 g/m*3 13.1 C 19.3 km/h
299 21-05-2022 01:15:00 12.9 C 9.81 g/m*3 12.9 C 11.3 km/h
300 21-05-2022 01:20:00 12.8 C 9.74 g/m*3 12.8 C 11.3 km/h
Sensor: Nr:Datum:Temp:Abs-Feuchte:Windchill:Wind:
Aussen-T/F 301 21-05-2022 01:25:00 12.7 C 9.8 g/m*3 12.7 C 6.4 km/h
302 21-05-2022 01:30:00 12.5 C 9.68 g/m*3 12.5 C 4.8 km/h
303 21-05-2022 01:35:00 12.4 C 9.62 g/m*3 12.4 C 6.4 km/h
304 21-05-2022 01:40:00 12.3 C 9.66 g/m*3 12.3 C 8.1 km/h
305 21-05-2022 01:45:00 12.2 C 9.6 g/m*3 12.2 C 11.3 km/h
306 21-05-2022 01:50:00 12.1 C 9.54 g/m*3 12.1 C 9.7 km/h
307 21-05-2022 01:55:00 12.1 C 9.54 g/m*3 12.1 C 6.4 km/h
308 21-05-2022 02:00:00 12 C 9.59 g/m*3 12 C 4.8 km/h
309 21-05-2022 02:05:00 11.9 C 9.53 g/m*3 11.9 C 6.4 km/h
310 21-05-2022 02:10:00 11.8 C 9.47 g/m*3 11.8 C 4.8 km/h
311 21-05-2022 02:15:00 11.7 C 9.52 g/m*3 11.7 C 3.2 km/h
312 21-05-2022 02:20:00 11.7 C 9.52 g/m*3 11.7 C 4.8 km/h
313 21-05-2022 02:25:00 11.6 C 9.46 g/m*3 11.6 C 3.2 km/h
314 21-05-2022 02:30:00 11.4 C 9.34 g/m*3 11.4 C 6.4 km/h
315 21-05-2022 02:35:00 11.4 C 9.44 g/m*3 11.4 C 6.4 km/h
316 21-05-2022 02:40:00 11.3 C 9.38 g/m*3 11.3 C 4.8 km/h
317 21-05-2022 02:45:00 11.3 C 9.38 g/m*3 11.3 C 6.4 km/h
318 21-05-2022 02:50:00 11.2 C 9.33 g/m*3 11.2 C 3.2 km/h
319 21-05-2022 02:55:00 11.1 C 9.27 g/m*3 11.1 C 4.8 km/h
320 21-05-2022 03:00:00 11.1 C 9.27 g/m*3 11.1 C 4.8 km/h
321 21-05-2022 03:05:00 10.9 C 9.15 g/m*3 10.9 C 4.8 km/h
322 21-05-2022 03:10:00 10.9 C 9.25 g/m*3 10.9 C 3.2 km/h
323 21-05-2022 03:15:00 10.8 C 9.19 g/m*3 10.8 C 1.6 km/h
324 21-05-2022 03:20:00 10.8 C 9.19 g/m*3 10.8 C 3.2 km/h
325 21-05-2022 03:25:00 10.7 C 9.13 g/m*3 10.7 C 3.2 km/h
Sensor: Nr:Datum:Temp:Abs-Feuchte:Windchill:Wind:
Aussen-T/F 326 21-05-2022 03:30:00 10.7 C 9.13 g/m*3 10.7 C 3.2 km/h
327 21-05-2022 03:35:00 10.6 C 9.08 g/m*3 10.6 C 3.2 km/h
328 21-05-2022 03:40:00 10.6 C 9.17 g/m*3 10.06 C 6.4 km/h
329 21-05-2022 03:45:00 10.6 C 9.08 g/m*3 10.6 C 1.6 km/h
330 21-05-2022 03:50:00 10.6 C 9.17 g/m*3 9.4 C 9.7 km/h
331 21-05-2022 03:55:00 10.6 C 9.17 g/m*3 10.6 C 4.8 km/h
332 21-05-2022 04:00:00 10.6 C 9.17 g/m*3 10.06 C 6.4 km/h
333 21-05-2022 04:05:00 10.6 C 9.17 g/m*3 9.4 C 9.7 km/h
334 21-05-2022 04:10:00 10.7 C 9.23 g/m*3 9.81 C 8.1 km/h
335 21-05-2022 04:15:00 10.7 C 9.23 g/m*3 10.18 C 6.4 km/h
336 21-05-2022 04:20:00 10.8 C 9.29 g/m*3 8.96 C 14.5 km/h
337 21-05-2022 04:25:00 10.8 C 9.29 g/m*3 9.38 C 11.3 km/h
338 21-05-2022 04:30:00 10.9 C 9.25 g/m*3 10.04 C 8.1 km/h
339 21-05-2022 04:35:00 10.9 C 9.25 g/m*3 10.04 C 8.1 km/h
340 21-05-2022 04:40:00 10.9 C 9.25 g/m*3 10.04 C 8.1 km/h
341 21-05-2022 04:45:00 10.9 C 9.25 g/m*3 8.73 C 17.7 km/h
342 21-05-2022 04:50:00 10.9 C 9.15 g/m*3 9.51 C 11.3 km/h
343 21-05-2022 04:55:00 11 C 9.21 g/m*3 9.63 C 11.3 km/h
344 21-05-2022 05:00:00 11 C 9.21 g/m*3 11 C 4.8 km/h
345 21-05-2022 05:05:00 10.9 C 9.15 g/m*3 10.41 C 6.4 km/h
346 21-05-2022 05:10:00 10.9 C 9.15 g/m*3 10.04 C 8.1 km/h
347 21-05-2022 05:15:00 10.9 C 9.15 g/m*3 10.41 C 6.4 km/h
348 21-05-2022 05:20:00 10.8 C 9.09 g/m*3 9.38 C 11.3 km/h
349 21-05-2022 05:25:00 10.8 C 9.09 g/m*3 10.29 C 6.4 km/h
350 21-05-2022 05:30:00 10.8 C 9.09 g/m*3 9.93 C 8.1 km/h
Sensor: Nr:Datum:Temp:Abs-Feuchte:Windchill:Wind:
Aussen-T/F 351 21-05-2022 05:35:00 10.8 C 9.09 g/m*3 10.8 C 3.2 km/h
352 21-05-2022 05:40:00 10.7 C 9.04 g/m*3 9.81 C 8.1 km/h
353 21-05-2022 05:45:00 10.7 C 9.13 g/m*3 10.7 C 0 km/h
354 21-05-2022 05:50:00 10.6 C 8.98 g/m*3 10.6 C 1.6 km/h
355 21-05-2022 05:55:00 10.5 C 9.02 g/m*3 9.95 C 6.4 km/h
356 21-05-2022 06:00:00 10.4 C 8.96 g/m*3 10.4 C 1.6 km/h
357 21-05-2022 06:05:00 10.4 C 8.96 g/m*3 9.46 C 8.1 km/h
358 21-05-2022 06:10:00 10.4 C 8.96 g/m*3 10.4 C 4.8 km/h
359 21-05-2022 06:15:00 10.5 C 9.02 g/m*3 8.8 C 12.9 km/h
360 21-05-2022 06:20:00 10.5 C 9.02 g/m*3 9.95 C 6.4 km/h
361 21-05-2022 06:25:00 10.5 C 9.02 g/m*3 9.57 C 8.1 km/h
362 21-05-2022 06:30:00 10.5 C 9.02 g/m*3 9.57 C 8.1 km/h
363 21-05-2022 06:35:00 10.5 C 9.02 g/m*3 9.95 C 6.4 km/h
364 21-05-2022 06:40:00 10.6 C 9.08 g/m*3 9.69 C 8.1 km/h
365 21-05-2022 06:45:00 10.6 C 9.08 g/m*3 9.69 C 8.1 km/h
366 21-05-2022 06:50:00 10.6 C 9.08 g/m*3 9.4 C 9.7 km/h
367 21-05-2022 06:55:00 10.7 C 9.13 g/m*3 9.81 C 8.1 km/h
368 21-05-2022 07:00:00 10.9 C 9.25 g/m*3 9.51 C 11.3 km/h
369 21-05-2022 07:05:00 10.9 C 9.15 g/m*3 9.76 C 9.7 km/h
370 21-05-2022 07:10:00 11.1 C 9.27 g/m*3 11.1 C 11.3 km/h
371 21-05-2022 07:15:00 11.2 C 9.33 g/m*3 11.2 C 11.3 km/h
372 21-05-2022 07:20:00 11.2 C 9.33 g/m*3 11.2 C 8.1 km/h
373 21-05-2022 07:25:00 11.3 C 9.28 g/m*3 11.3 C 11.3 km/h
374 21-05-2022 07:30:00 11.4 C 9.34 g/m*3 11.4 C 16.1 km/h
375 21-05-2022 07:35:00 11.6 C 9.46 g/m*3 11.6 C 8.1 km/h
Sensor: Nr:Datum:Temp:Abs-Feuchte:Windchill:Wind:
Aussen-T/F 376 21-05-2022 07:40:00 11.6 C 9.46 g/m*3 11.6 C 11.3 km/h
377 21-05-2022 07:45:00 11.7 C 9.41 g/m*3 11.7 C 14.5 km/h
378 21-05-2022 07:50:00 11.8 C 9.47 g/m*3 11.8 C 11.3 km/h
379 21-05-2022 07:55:00 11.9 C 9.53 g/m*3 11.9 C 16.1 km/h
380 21-05-2022 08:00:00 11.9 C 9.43 g/m*3 11.9 C 12.9 km/h
381 21-05-2022 08:05:00 12 C 9.48 g/m*3 12 C 11.3 km/h
382 21-05-2022 08:10:00 12.1 C 9.54 g/m*3 12.1 C 14.5 km/h
383 21-05-2022 08:15:00 12.2 C 9.6 g/m*3 12.2 C 12.9 km/h
384 21-05-2022 08:20:00 12.4 C 9.62 g/m*3 12.4 C 14.5 km/h
385 21-05-2022 08:25:00 12.5 C 9.68 g/m*3 12.5 C 11.3 km/h
386 21-05-2022 08:30:00 12.6 C 9.74 g/m*3 12.6 C 12.9 km/h
387 21-05-2022 08:35:00 12.8 C 9.74 g/m*3 12.8 C 14.5 km/h
388 21-05-2022 08:40:00 13.3 C 9.94 g/m*3 13.3 C 11.3 km/h
389 21-05-2022 08:45:00 13.5 C 9.94 g/m*3 13.5 C 16.1 km/h
390 21-05-2022 08:50:00 13.7 C 10.07 g/m*3 13.7 C 14.5 km/h
391 21-05-2022 08:55:00 13.7 C 9.95 g/m*3 13.7 C 12.9 km/h
392 21-05-2022 09:00:00 13.8 C 10.01 g/m*3 13.8 C 14.5 km/h
393 21-05-2022 09:05:00 14 C 10.13 g/m*3 14 C 16.1 km/h
394 21-05-2022 09:10:00 14.1 C 10.19 g/m*3 14.1 C 11.3 km/h
395 21-05-2022 09:15:00 14.3 C 10.2 g/m*3 14.3 C 12.9 km/h
396 21-05-2022 09:20:00 14.4 C 10.26 g/m*3 14.4 C 11.3 km/h
397 21-05-2022 09:25:00 14.5 C 10.45 g/m*3 14.5 C 9.7 km/h
398 21-05-2022 09:30:00 14.5 C 9.95 g/m*3 14.5 C 16.1 km/h
399 21-05-2022 09:35:00 14.7 C 10.2 g/m*3 14.7 C 11.3 km/h
400 21-05-2022 09:40:00 14.8 C 10.39 g/m*3 14.8 C 12.9 km/h
Sensor: Nr:Datum:Temp:Abs-Feuchte:Windchill:Wind:
Aussen-T/F 401 21-05-2022 09:45:00 15 C 10 g/m*3 15 C 17.7 km/h
402 21-05-2022 09:50:00 15.1 C 10.06 g/m*3 15.1 C 12.9 km/h
403 21-05-2022 09:55:00 15.1 C 9.8 g/m*3 15.1 C 14.5 km/h
404 21-05-2022 10:00:00 15.2 C 9.86 g/m*3 15.2 C 16.1 km/h
405 21-05-2022 10:05:00 15.2 C 9.99 g/m*3 15.2 C 12.9 km/h
406 21-05-2022 10:10:00 15.3 C 10.06 g/m*3 15.3 C 12.9 km/h
407 21-05-2022 10:15:00 15.4 C 10.12 g/m*3 15.4 C 9.7 km/h
408 21-05-2022 10:20:00 15.6 C 10.37 g/m*3 15.6 C 12.9 km/h
409 21-05-2022 10:25:00 15.7 C 10.17 g/m*3 15.7 C 11.3 km/h
410 21-05-2022 10:30:00 15.8 C 10.23 g/m*3 15.8 C 9.7 km/h
411 21-05-2022 10:35:00 16.1 C 10.28 g/m*3 16.1 C 11.3 km/h
412 21-05-2022 10:40:00 16.3 C 10.13 g/m*3 16.3 C 12.9 km/h
413 21-05-2022 10:45:00 16.5 C 10.39 g/m*3 16.5 C 12.9 km/h
414 21-05-2022 10:50:00 16.7 C 10.37 g/m*3 16.7 C 14.5 km/h
415 21-05-2022 10:55:00 16.7 C 9.95 g/m*3 16.7 C 14.5 km/h
416 21-05-2022 11:00:00 16.7 C 10.66 g/m*3 16.7 C 9.7 km/h
417 21-05-2022 11:05:00 16.7 C 10.23 g/m*3 16.7 C 9.7 km/h
418 21-05-2022 11:10:00 16.8 C 10.29 g/m*3 16.8 C 12.9 km/h
419 21-05-2022 11:15:00 17.1 C 10.34 g/m*3 17.1 C 14.5 km/h
420 21-05-2022 11:20:00 17.3 C 10.75 g/m*3 17.3 C 11.3 km/h
421 21-05-2022 11:25:00 17.4 C 10.52 g/m*3 17.4 C 14.5 km/h
422 21-05-2022 11:30:00 17.5 C 10.59 g/m*3 17.5 C 11.3 km/h
423 21-05-2022 11:35:00 17.6 C 10.5 g/m*3 17.6 C 17.7 km/h
424 21-05-2022 11:40:00 17.5 C 10.59 g/m*3 17.5 C 11.3 km/h
425 21-05-2022 11:45:00 17.6 C 10.8 g/m*3 17.6 C 12.9 km/h
Sensor: Nr:Datum:Temp:Abs-Feuchte:Windchill:Wind:
Aussen-T/F 426 21-05-2022 11:50:00 17.7 C 10.71 g/m*3 17.7 C 11.3 km/h
427 21-05-2022 11:55:00 17.8 C 10.47 g/m*3 17.8 C 11.3 km/h
428 21-05-2022 12:00:00 17.9 C 10.69 g/m*3 17.9 C 11.3 km/h
429 21-05-2022 12:05:00 18.1 C 10.66 g/m*3 18.1 C 11.3 km/h
430 21-05-2022 12:10:00 18.2 C 10.72 g/m*3 18.2 C 11.3 km/h
431 21-05-2022 12:15:00 18.4 C 10.85 g/m*3 18.4 C 9.7 km/h
432 21-05-2022 12:20:00 18.5 C 10.28 g/m*3 18.5 C 14.5 km/h
433 21-05-2022 12:25:00 18.4 C 10.22 g/m*3 18.4 C 16.1 km/h
434 21-05-2022 12:30:00 18.4 C 10.22 g/m*3 18.4 C 11.3 km/h
435 21-05-2022 12:35:00 18.6 C 10.35 g/m*3 18.6 C 9.7 km/h
436 21-05-2022 12:40:00 18.8 C 10.31 g/m*3 18.8 C 9.7 km/h
437 21-05-2022 12:45:00 18.9 C 10.21 g/m*3 18.9 C 12.9 km/h
438 21-05-2022 12:50:00 19.1 C 10.49 g/m*3 19.1 C 14.5 km/h
439 21-05-2022 12:55:00 19.3 C 10.28 g/m*3 19.3 C 11.3 km/h
440 21-05-2022 13:00:00 19.4 C 10.18 g/m*3 19.4 C 9.7 km/h
441 21-05-2022 13:05:00 19.5 C 10.41 g/m*3 19.5 C 9.7 km/h
442 21-05-2022 13:10:00 19.4 C 10.01 g/m*3 19.4 C 8.1 km/h
443 21-05-2022 13:15:00 19.5 C 9.9 g/m*3 19.5 C 12.9 km/h
444 21-05-2022 13:20:00 19.3 C 9.45 g/m*3 19.3 C 11.3 km/h
445 21-05-2022 13:25:00 19.3 C 9.95 g/m*3 19.3 C 9.7 km/h
446 21-05-2022 13:30:00 19.4 C 10.01 g/m*3 19.4 C 9.7 km/h
447 21-05-2022 13:35:00 19.7 C 9.68 g/m*3 19.7 C 11.3 km/h
448 21-05-2022 13:40:00 19.8 C 9.91 g/m*3 19.8 C 11.3 km/h
449 21-05-2022 13:45:00 19.8 C 10.08 g/m*3 19.8 C 11.3 km/h
450 21-05-2022 13:50:00 19.7 C 9.68 g/m*3 19.7 C 4.8 km/h
Sensor: Nr:Datum:Temp:Abs-Feuchte:Windchill:Wind:
Aussen-T/F 451 21-05-2022 13:55:00 19.7 C 9.85 g/m*3 19.7 C 9.7 km/h
452 21-05-2022 14:00:00 19.8 C 9.91 g/m*3 19.8 C 9.7 km/h
453 21-05-2022 14:05:00 19.8 C 9.91 g/m*3 19.8 C 11.3 km/h
454 21-05-2022 14:10:00 19.7 C 9.34 g/m*3 19.7 C 4.8 km/h
455 21-05-2022 14:15:00 19.8 C 9.74 g/m*3 19.8 C 11.3 km/h
456 21-05-2022 14:20:00 19.8 C 9.39 g/m*3 19.8 C 4.8 km/h
457 21-05-2022 14:25:00 19.7 C 10.19 g/m*3 19.7 C 6.4 km/h
458 21-05-2022 14:30:00 19.7 C 9.34 g/m*3 19.7 C 11.3 km/h
459 21-05-2022 14:35:00 19.8 C 9.74 g/m*3 19.8 C 14.5 km/h
460 21-05-2022 14:40:00 19.9 C 9.45 g/m*3 19.9 C 8.1 km/h
461 21-05-2022 14:45:00 19.9 C 9.28 g/m*3 19.9 C 6.4 km/h
462 21-05-2022 14:50:00 20.1 C 9.56 g/m*3 20.1 C 9.7 km/h
463 21-05-2022 14:55:00 20.2 C 9.44 g/m*3 20.2 C 9.7 km/h
464 21-05-2022 15:00:00 20.3 C 9.67 g/m*3 20.3 C 8.1 km/h
465 21-05-2022 15:05:00 20.2 C 9.79 g/m*3 20.2 C 9.7 km/h
466 21-05-2022 15:10:00 20.2 C 9.62 g/m*3 20.2 C 8.1 km/h
467 21-05-2022 15:15:00 20.3 C 9.32 g/m*3 20.3 C 8.1 km/h
468 21-05-2022 15:20:00 20.3 C 8.97 g/m*3 20.3 C 4.8 km/h
469 21-05-2022 15:25:00 20.4 C 9.02 g/m*3 20.4 C 12.9 km/h
470 21-05-2022 15:30:00 20.7 C 9.72 g/m*3 20.7 C 9.7 km/h
471 21-05-2022 15:35:00 20.9 C 9.29 g/m*3 20.9 C 11.3 km/h
472 21-05-2022 15:40:00 20.9 C 10.02 g/m*3 20.9 C 6.4 km/h
473 21-05-2022 15:45:00 20.8 C 9.42 g/m*3 20.8 C 8.1 km/h
474 21-05-2022 15:50:00 20.9 C 10.02 g/m*3 20.9 C 8.1 km/h
475 21-05-2022 15:55:00 20.9 C 9.47 g/m*3 20.9 C 4.8 km/h
Sensor: Nr:Datum:Temp:Abs-Feuchte:Windchill:Wind:
Aussen-T/F 476 21-05-2022 16:00:00 21.1 C 9.58 g/m*3 21.1 C 11.3 km/h
477 21-05-2022 16:05:00 20.9 C 9.65 g/m*3 20.9 C 6.4 km/h
478 21-05-2022 16:10:00 20.9 C 9.65 g/m*3 20.9 C 6.4 km/h
479 21-05-2022 16:15:00 21.1 C 9.95 g/m*3 21.1 C 12.9 km/h
480 21-05-2022 16:20:00 21.1 C 9.4 g/m*3 21.1 C 11.3 km/h
481 21-05-2022 16:25:00 21.1 C 9.03 g/m*3 21.1 C 9.7 km/h
482 21-05-2022 16:30:00 21 C 9.16 g/m*3 21 C 8.1 km/h
483 21-05-2022 16:35:00 20.8 C 9.23 g/m*3 20.8 C 11.3 km/h
484 21-05-2022 16:40:00 20.8 C 9.23 g/m*3 20.8 C 4.8 km/h
485 21-05-2022 16:45:00 20.8 C 9.23 g/m*3 20.8 C 8.1 km/h
486 21-05-2022 16:50:00 21.1 C 9.77 g/m*3 21.1 C 11.3 km/h
487 21-05-2022 16:55:00 21.1 C 9.58 g/m*3 21.1 C 11.3 km/h
488 21-05-2022 17:00:00 20.8 C 9.42 g/m*3 20.8 C 14.5 km/h
489 21-05-2022 17:05:00 20.6 C 9.84 g/m*3 20.6 C 6.4 km/h
490 21-05-2022 17:10:00 20.6 C 9.66 g/m*3 20.6 C 6.4 km/h
491 21-05-2022 17:15:00 21.1 C 9.4 g/m*3 21.1 C 6.4 km/h
492 21-05-2022 17:20:00 21.5 C 9.81 g/m*3 21.5 C 6.4 km/h
493 21-05-2022 17:25:00 21.9 C 9.84 g/m*3 21.9 C 9.7 km/h
494 21-05-2022 17:30:00 21.9 C 9.65 g/m*3 21.9 C 8.1 km/h
495 21-05-2022 17:35:00 22 C 9.7 g/m*3 22 C 8.1 km/h
496 21-05-2022 17:40:00 22.1 C 9.56 g/m*3 22.1 C 11.3 km/h
497 21-05-2022 17:45:00 22.2 C 10.01 g/m*3 22.2 C 9.7 km/h
498 21-05-2022 17:50:00 22.4 C 9.93 g/m*3 22.4 C 6.4 km/h
499 21-05-2022 17:55:00 22.6 C 10.04 g/m*3 22.6 C 6.4 km/h
500 21-05-2022 18:00:00 22.7 C 10.1 g/m*3 22.7 C 6.4 km/h
Sensor: Nr:Datum:Temp:Abs-Feuchte:Windchill:Wind:
Aussen-T/F 501 21-05-2022 18:05:00 22.6 C 9.84 g/m*3 22.6 C 8.1 km/h
502 21-05-2022 18:10:00 22.6 C 9.44 g/m*3 22.6 C 6.4 km/h
503 21-05-2022 18:15:00 22.6 C 9.84 g/m*3 22.6 C 4.8 km/h
504 21-05-2022 18:20:00 22.7 C 9.9 g/m*3 22.7 C 6.4 km/h
505 21-05-2022 18:25:00 22.6 C 9.84 g/m*3 22.6 C 8.1 km/h
506 21-05-2022 18:30:00 22.3 C 9.48 g/m*3 22.3 C 8.1 km/h
507 21-05-2022 18:35:00 21.9 C 9.46 g/m*3 21.9 C 12.9 km/h
508 21-05-2022 18:40:00 21.4 C 9.19 g/m*3 21.4 C 8.1 km/h
509 21-05-2022 18:45:00 21.1 C 9.4 g/m*3 21.1 C 6.4 km/h
510 21-05-2022 18:50:00 21 C 9.34 g/m*3 21 C 4.8 km/h
511 21-05-2022 18:55:00 20.8 C 9.23 g/m*3 20.8 C 6.4 km/h
512 21-05-2022 19:00:00 20.7 C 9.72 g/m*3 20.7 C 9.7 km/h
513 21-05-2022 19:05:00 20.4 C 9.55 g/m*3 20.4 C 11.3 km/h
514 21-05-2022 19:10:00 20.3 C 9.85 g/m*3 20.3 C 6.4 km/h
515 21-05-2022 19:15:00 20.2 C 9.62 g/m*3 20.2 C 9.7 km/h
516 21-05-2022 19:20:00 20.1 C 9.73 g/m*3 20.1 C 6.4 km/h
517 21-05-2022 19:25:00 20.1 C 9.73 g/m*3 20.1 C 8.1 km/h
518 21-05-2022 19:30:00 19.9 C 9.62 g/m*3 19.9 C 9.7 km/h
519 21-05-2022 19:35:00 19.8 C 9.74 g/m*3 19.8 C 6.4 km/h
520 21-05-2022 19:40:00 19.8 C 9.74 g/m*3 19.8 C 4.8 km/h
521 21-05-2022 19:45:00 19.8 C 9.57 g/m*3 19.8 C 4.8 km/h
522 21-05-2022 19:50:00 19.7 C 9.85 g/m*3 19.7 C 4.8 km/h
523 21-05-2022 19:55:00 19.7 C 10.02 g/m*3 19.7 C 0 km/h
524 21-05-2022 20:00:00 19.6 C 10.8 g/m*3 19.6 C 4.8 km/h
525 21-05-2022 20:05:00 19.6 C 10.8 g/m*3 19.6 C 3.2 km/h
Sensor: Nr:Datum:Temp:Abs-Feuchte:Windchill:Wind:
Aussen-T/F 526 21-05-2022 20:10:00 19.6 C 11.82 g/m*3 19.6 C 1.6 km/h
527 21-05-2022 20:15:00 19.4 C 12.01 g/m*3 19.4 C 3.2 km/h
528 21-05-2022 20:20:00 19.2 C 12.04 g/m*3 19.2 C 0 km/h
529 21-05-2022 20:25:00 18.9 C 11.83 g/m*3 18.9 C 0 km/h
530 21-05-2022 20:30:00 18.7 C 11.85 g/m*3 18.7 C 0 km/h
531 21-05-2022 20:35:00 18.4 C 11.8 g/m*3 18.4 C 0 km/h
532 21-05-2022 20:40:00 18.2 C 11.81 g/m*3 18.2 C 0 km/h
533 21-05-2022 20:45:00 17.9 C 11.76 g/m*3 17.9 C 0 km/h
534 21-05-2022 20:50:00 17.6 C 11.4 g/m*3 17.6 C 0 km/h
535 21-05-2022 20:55:00 17.3 C 11.34 g/m*3 17.3 C 1.6 km/h
536 21-05-2022 21:00:00 17.1 C 11.35 g/m*3 17.1 C 1.6 km/h
537 21-05-2022 21:05:00 16.8 C 11.29 g/m*3 16.8 C 0 km/h
538 21-05-2022 21:10:00 16.7 C 11.37 g/m*3 16.7 C 0 km/h
539 21-05-2022 21:15:00 16.6 C 11.44 g/m*3 16.6 C 0 km/h
540 21-05-2022 21:20:00 16.4 C 11.31 g/m*3 16.4 C 0 km/h
541 21-05-2022 21:25:00 16.2 C 11.03 g/m*3 16.2 C 0 km/h
542 21-05-2022 21:30:00 16.1 C 10.97 g/m*3 16.1 C 0 km/h
543 21-05-2022 21:35:00 15.8 C 10.77 g/m*3 15.8 C 0 km/h
544 21-05-2022 21:40:00 15.7 C 10.84 g/m*3 15.7 C 0 km/h
545 21-05-2022 21:45:00 15.4 C 10.64 g/m*3 15.4 C 0 km/h
546 21-05-2022 21:50:00 15.2 C 10.64 g/m*3 15.2 C 0 km/h
547 21-05-2022 21:55:00 14.9 C 10.32 g/m*3 14.9 C 0 km/h
548 21-05-2022 22:00:00 14.7 C 10.32 g/m*3 14.7 C 0 km/h
549 21-05-2022 22:05:00 14.4 C 10.14 g/m*3 14.4 C 0 km/h
550 21-05-2022 22:10:00 14.2 C 10.14 g/m*3 14.2 C 0 km/h
Sensor: Nr:Datum:Temp:Abs-Feuchte:Windchill:Wind:
Aussen-T/F 551 21-05-2022 22:15:00 13.9 C 9.95 g/m*3 13.9 C 0 km/h
552 21-05-2022 22:20:00 13.8 C 10.01 g/m*3 13.8 C 0 km/h
553 21-05-2022 22:25:00 13.7 C 10.07 g/m*3 13.7 C 0 km/h
554 21-05-2022 22:30:00 13.5 C 9.94 g/m*3 13.5 C 0 km/h
555 21-05-2022 22:35:00 13.4 C 9.88 g/m*3 13.4 C 0 km/h
556 21-05-2022 22:40:00 13.3 C 9.94 g/m*3 13.3 C 0 km/h
557 21-05-2022 22:45:00 13.2 C 9.87 g/m*3 13.2 C 0 km/h
558 21-05-2022 22:50:00 13.1 C 9.93 g/m*3 13.1 C 0 km/h
559 21-05-2022 22:55:00 13 C 9.87 g/m*3 13 C 0 km/h
560 21-05-2022 23:00:00 12.9 C 9.81 g/m*3 12.9 C 1.6 km/h
561 21-05-2022 23:05:00 12.8 C 9.74 g/m*3 12.8 C 0 km/h
562 21-05-2022 23:10:00 12.8 C 9.86 g/m*3 12.8 C 0 km/h
563 21-05-2022 23:15:00 12.7 C 9.8 g/m*3 12.7 C 0 km/h
564 21-05-2022 23:20:00 12.6 C 9.74 g/m*3 12.6 C 0 km/h
565 21-05-2022 23:25:00 12.4 C 9.62 g/m*3 12.4 C 0 km/h
566 21-05-2022 23:30:00 12.3 C 9.56 g/m*3 12.3 C 0 km/h
567 21-05-2022 23:35:00 12.3 C 9.66 g/m*3 12.3 C 0 km/h
568 21-05-2022 23:40:00 12.2 C 9.6 g/m*3 12.2 C 0 km/h
569 21-05-2022 23:45:00 12.2 C 9.6 g/m*3 12.2 C 0 km/h
570 21-05-2022 23:50:00 12.1 C 9.65 g/m*3 12.1 C 0 km/h
571 21-05-2022 23:55:00 12 C 9.59 g/m*3 12 C 0 km/h
572 22-05-2022 00:00:00 11.9 C 9.53 g/m*3 11.9 C 0 km/h
573 22-05-2022 00:05:00 11.8 C 9.47 g/m*3 11.8 C 0 km/h
574 22-05-2022 00:10:00 11.8 C 9.47 g/m*3 11.8 C 0 km/h
575 22-05-2022 00:15:00 11.7 C 9.41 g/m*3 11.7 C 0 km/h
Sensor: Nr:Datum:Temp:Abs-Feuchte:Windchill:Wind:
Aussen-T/F 576 22-05-2022 00:20:00 11.6 C 9.35 g/m*3 11.6 C 0 km/h
577 22-05-2022 00:25:00 11.4 C 9.24 g/m*3 11.4 C 0 km/h
578 22-05-2022 00:30:00 11.3 C 9.18 g/m*3 11.3 C 0 km/h
579 22-05-2022 00:35:00 11.3 C 9.18 g/m*3 11.3 C 0 km/h
580 22-05-2022 00:40:00 11.2 C 9.12 g/m*3 11.2 C 0 km/h
581 22-05-2022 00:45:00 11.1 C 9.17 g/m*3 11.1 C 0 km/h
582 22-05-2022 00:50:00 11.1 C 9.17 g/m*3 11.1 C 0 km/h
583 22-05-2022 00:55:00 11 C 9.11 g/m*3 11 C 0 km/h
584 22-05-2022 01:00:00 10.9 C 9.05 g/m*3 10.9 C 1.6 km/h
585 22-05-2022 01:05:00 10.9 C 9.05 g/m*3 10.9 C 1.6 km/h
586 22-05-2022 01:10:00 10.8 C 8.99 g/m*3 10.8 C 0 km/h
587 22-05-2022 01:15:00 10.8 C 8.99 g/m*3 10.8 C 0 km/h
588 22-05-2022 01:20:00 10.7 C 8.94 g/m*3 10.7 C 0 km/h
589 22-05-2022 01:25:00 10.7 C 8.94 g/m*3 10.7 C 0 km/h
590 22-05-2022 01:30:00 10.6 C 8.98 g/m*3 10.6 C 0 km/h
591 22-05-2022 01:35:00 10.6 C 8.98 g/m*3 10.6 C 0 km/h
592 22-05-2022 01:40:00 10.6 C 8.98 g/m*3 10.6 C 0 km/h
593 22-05-2022 01:45:00 10.6 C 9.08 g/m*3 10.6 C 0 km/h
594 22-05-2022 01:50:00 10.7 C 9.13 g/m*3 10.7 C 0 km/h
595 22-05-2022 01:55:00 10.7 C 9.13 g/m*3 10.7 C 0 km/h
596 22-05-2022 02:00:00 10.7 C 9.13 g/m*3 10.7 C 0 km/h
597 22-05-2022 02:05:00 10.8 C 9.19 g/m*3 10.8 C 0 km/h
598 22-05-2022 02:10:00 10.8 C 9.19 g/m*3 10.8 C 0 km/h
599 22-05-2022 02:15:00 10.8 C 9.19 g/m*3 10.8 C 0 km/h
600 22-05-2022 02:20:00 10.7 C 9.13 g/m*3 10.7 C 0 km/h
Sensor: Nr:Datum:Temp:Abs-Feuchte:Windchill:Wind:
Aussen-T/F 601 22-05-2022 02:25:00 10.6 C 9.08 g/m*3 10.6 C 0 km/h
602 22-05-2022 02:30:00 10.6 C 9.08 g/m*3 10.6 C 0 km/h
603 22-05-2022 02:35:00 10.5 C 9.02 g/m*3 10.5 C 0 km/h
604 22-05-2022 02:40:00 10.4 C 8.96 g/m*3 10.4 C 0 km/h
605 22-05-2022 02:45:00 10.3 C 8.91 g/m*3 10.3 C 0 km/h
606 22-05-2022 02:50:00 10.3 C 8.91 g/m*3 10.3 C 0 km/h
607 22-05-2022 02:55:00 10.2 C 8.85 g/m*3 10.2 C 0 km/h
608 22-05-2022 03:00:00 10.2 C 8.85 g/m*3 10.2 C 1.6 km/h
609 22-05-2022 03:05:00 10.1 C 8.79 g/m*3 10.1 C 1.6 km/h
610 22-05-2022 03:10:00 10.1 C 8.79 g/m*3 10.1 C 0 km/h
611 22-05-2022 03:15:00 10.1 C 8.79 g/m*3 10.1 C 0 km/h
612 22-05-2022 03:20:00 10.1 C 8.79 g/m*3 10.1 C 3.2 km/h
613 22-05-2022 03:25:00 10.2 C 8.95 g/m*3 10.2 C 1.6 km/h
614 22-05-2022 03:30:00 10.2 C 8.95 g/m*3 10.2 C 0 km/h
615 22-05-2022 03:35:00 10.3 C 9 g/m*3 10.3 C 0 km/h
616 22-05-2022 03:40:00 10.3 C 9 g/m*3 10.3 C 0 km/h
617 22-05-2022 03:45:00 10.2 C 8.95 g/m*3 10.2 C 0 km/h
618 22-05-2022 03:50:00 10.2 C 8.95 g/m*3 10.2 C 0 km/h
619 22-05-2022 03:55:00 10.1 C 8.89 g/m*3 10.1 C 0 km/h
620 22-05-2022 04:00:00 10.1 C 8.89 g/m*3 10.1 C 1.6 km/h
621 22-05-2022 04:05:00 9.9 C 8.68 g/m*3 9.9 C 0 km/h
622 22-05-2022 04:10:00 9.8 C 8.63 g/m*3 9.8 C 0 km/h
623 22-05-2022 04:15:00 9.8 C 8.63 g/m*3 9.8 C 0 km/h
624 22-05-2022 04:20:00 9.7 C 8.67 g/m*3 9.7 C 0 km/h
625 22-05-2022 04:25:00 9.7 C 8.57 g/m*3 9.7 C 0 km/h
Sensor: Nr:Datum:Temp:Abs-Feuchte:Windchill:Wind:
Aussen-T/F 626 22-05-2022 04:30:00 9.7 C 8.67 g/m*3 9.7 C 0 km/h
627 22-05-2022 04:35:00 9.6 C 8.52 g/m*3 9.6 C 0 km/h
628 22-05-2022 04:40:00 9.5 C 8.56 g/m*3 9.5 C 0 km/h
629 22-05-2022 04:45:00 9.4 C 8.5 g/m*3 9.4 C 0 km/h
630 22-05-2022 04:50:00 9.3 C 8.45 g/m*3 9.3 C 0 km/h
631 22-05-2022 04:55:00 9.3 C 8.45 g/m*3 9.3 C 0 km/h
632 22-05-2022 05:00:00 9.2 C 8.39 g/m*3 9.2 C 0 km/h
633 22-05-2022 05:05:00 9.2 C 8.39 g/m*3 9.2 C 0 km/h
634 22-05-2022 05:10:00 9.1 C 8.34 g/m*3 9.1 C 0 km/h
635 22-05-2022 05:15:00 9.1 C 8.34 g/m*3 9.1 C 0 km/h
636 22-05-2022 05:20:00 9 C 8.29 g/m*3 9 C 0 km/h
637 22-05-2022 05:25:00 8.9 C 8.23 g/m*3 8.9 C 0 km/h
638 22-05-2022 05:30:00 8.9 C 8.23 g/m*3 8.9 C 1.6 km/h
639 22-05-2022 05:35:00 8.9 C 8.23 g/m*3 8.9 C 0 km/h
640 22-05-2022 05:40:00 8.9 C 8.23 g/m*3 8.9 C 0 km/h
641 22-05-2022 05:45:00 8.9 C 8.23 g/m*3 8.9 C 0 km/h
642 22-05-2022 05:50:00 8.9 C 8.23 g/m*3 8.9 C 0 km/h
643 22-05-2022 05:55:00 8.9 C 8.32 g/m*3 8.9 C 0 km/h
644 22-05-2022 06:00:00 8.8 C 8.27 g/m*3 8.8 C 0 km/h
645 22-05-2022 06:05:00 8.9 C 8.32 g/m*3 8.9 C 0 km/h
646 22-05-2022 06:10:00 8.9 C 8.32 g/m*3 8.9 C 0 km/h
647 22-05-2022 06:15:00 9.1 C 8.43 g/m*3 9.1 C 0 km/h
648 22-05-2022 06:20:00 9.2 C 8.48 g/m*3 9.2 C 0 km/h
649 22-05-2022 06:25:00 9.2 C 8.48 g/m*3 9.2 C 0 km/h
650 22-05-2022 06:30:00 9.2 C 8.48 g/m*3 9.2 C 0 km/h
Sensor: Nr:Datum:Temp:Abs-Feuchte:Windchill:Wind:
Aussen-T/F 651 22-05-2022 06:35:00 9.2 C 8.48 g/m*3 9.2 C 0 km/h
652 22-05-2022 06:40:00 9.1 C 8.43 g/m*3 9.1 C 1.6 km/h
653 22-05-2022 06:45:00 9.1 C 8.43 g/m*3 9.1 C 0 km/h
654 22-05-2022 06:50:00 9.1 C 8.43 g/m*3 9.1 C 0 km/h
655 22-05-2022 06:55:00 9.1 C 8.43 g/m*3 9.1 C 0 km/h
656 22-05-2022 07:00:00 9.1 C 8.43 g/m*3 9.1 C 0 km/h
657 22-05-2022 07:05:00 9.2 C 8.48 g/m*3 9.2 C 0 km/h
658 22-05-2022 07:10:00 9.2 C 8.48 g/m*3 9.2 C 0 km/h
659 22-05-2022 07:15:00 9.2 C 8.48 g/m*3 9.2 C 0 km/h
660 22-05-2022 07:20:00 9.2 C 8.48 g/m*3 9.2 C 0 km/h
661 22-05-2022 07:25:00 9.3 C 8.54 g/m*3 9.3 C 0 km/h
662 22-05-2022 07:30:00 9.3 C 8.54 g/m*3 9.3 C 0 km/h
663 22-05-2022 07:35:00 9.4 C 8.59 g/m*3 9.4 C 0 km/h
664 22-05-2022 07:40:00 9.5 C 8.74 g/m*3 9.5 C 1.6 km/h
665 22-05-2022 07:45:00 9.6 C 8.79 g/m*3 9.6 C 0 km/h
666 22-05-2022 07:50:00 9.7 C 8.76 g/m*3 9.7 C 0 km/h
667 22-05-2022 07:55:00 9.7 C 8.76 g/m*3 9.7 C 0 km/h
668 22-05-2022 08:00:00 9.8 C 8.91 g/m*3 9.8 C 3.2 km/h
669 22-05-2022 08:05:00 9.9 C 8.96 g/m*3 9.9 C 1.6 km/h
670 22-05-2022 08:10:00 10.1 C 9.08 g/m*3 10.1 C 1.6 km/h
671 22-05-2022 08:15:00 10.2 C 9.14 g/m*3 10.2 C 1.6 km/h
672 22-05-2022 08:20:00 10.2 C 9.14 g/m*3 10.2 C 1.6 km/h
673 22-05-2022 08:25:00 10.3 C 9.19 g/m*3 10.3 C 0 km/h
674 22-05-2022 08:30:00 10.4 C 9.25 g/m*3 10.4 C 0 km/h
675 22-05-2022 08:35:00 10.4 C 9.25 g/m*3 10.4 C 0 km/h
Sensor: Nr:Datum:Temp:Abs-Feuchte:Windchill:Wind:
Aussen-T/F 676 22-05-2022 08:40:00 10.5 C 9.31 g/m*3 10.5 C 0 km/h
677 22-05-2022 08:45:00 10.6 C 9.37 g/m*3 10.6 C 1.6 km/h
678 22-05-2022 08:50:00 10.8 C 9.49 g/m*3 10.8 C 3.2 km/h
679 22-05-2022 08:55:00 11 C 9.61 g/m*3 11 C 4.8 km/h
680 22-05-2022 09:00:00 11.3 C 9.79 g/m*3 11.3 C 1.6 km/h
681 22-05-2022 09:05:00 11.5 C 9.92 g/m*3 11.5 C 3.2 km/h
682 22-05-2022 09:10:00 11.7 C 10.04 g/m*3 11.7 C 0 km/h
683 22-05-2022 09:15:00 11.9 C 10.17 g/m*3 11.9 C 0 km/h
684 22-05-2022 09:20:00 12.3 C 10.42 g/m*3 12.3 C 0 km/h
685 22-05-2022 09:25:00 12.6 C 10.62 g/m*3 12.6 C 0 km/h
686 22-05-2022 09:30:00 12.7 C 10.69 g/m*3 12.7 C 0 km/h
687 22-05-2022 09:35:00 12.8 C 10.64 g/m*3 12.8 C 0 km/h
688 22-05-2022 09:40:00 12.8 C 10.64 g/m*3 12.8 C 0 km/h
689 22-05-2022 09:45:00 12.9 C 10.71 g/m*3 12.9 C 0 km/h
690 22-05-2022 09:50:00 13.1 C 10.84 g/m*3 13.1 C 0 km/h
691 22-05-2022 09:55:00 13.2 C 10.91 g/m*3 13.2 C 0 km/h
692 22-05-2022 10:00:00 13.3 C 10.98 g/m*3 13.3 C 0 km/h
693 22-05-2022 10:05:00 13.4 C 11.04 g/m*3 13.4 C 0 km/h
694 22-05-2022 10:10:00 13.7 C 11.25 g/m*3 13.7 C 0 km/h
695 22-05-2022 10:15:00 13.9 C 11.39 g/m*3 13.9 C 0 km/h
696 22-05-2022 10:20:00 14.1 C 11.41 g/m*3 14.1 C 1.6 km/h
697 22-05-2022 10:25:00 14.2 C 11.48 g/m*3 14.2 C 0 km/h
698 22-05-2022 10:30:00 14.4 C 11.62 g/m*3 14.4 C 0 km/h
699 22-05-2022 10:35:00 14.8 C 11.91 g/m*3 14.8 C 0 km/h
700 22-05-2022 10:40:00 15.1 C 11.87 g/m*3 15.1 C 0 km/h
Sensor: Nr:Datum:Temp:Abs-Feuchte:Windchill:Wind:
Aussen-T/F 701 22-05-2022 10:45:00 15.3 C 11.75 g/m*3 15.3 C 0 km/h
702 22-05-2022 10:50:00 15.8 C 11.85 g/m*3 15.8 C 1.6 km/h
703 22-05-2022 10:55:00 16.3 C 11.93 g/m*3 16.3 C 1.6 km/h
704 22-05-2022 11:00:00 16.7 C 11.8 g/m*3 16.7 C 6.4 km/h
705 22-05-2022 11:05:00 17.4 C 10.97 g/m*3 17.4 C 8.1 km/h
706 22-05-2022 11:10:00 18 C 11.06 g/m*3 18 C 1.6 km/h
707 22-05-2022 11:15:00 18.4 C 11.48 g/m*3 18.4 C 0 km/h
708 22-05-2022 11:20:00 18.7 C 10.73 g/m*3 18.7 C 8.1 km/h
709 22-05-2022 11:25:00 19.1 C 11.47 g/m*3 19.1 C 0 km/h
710 22-05-2022 11:30:00 19.3 C 10.95 g/m*3 19.3 C 0 km/h
711 22-05-2022 11:35:00 19.6 C 10.64 g/m*3 19.6 C 11.3 km/h
712 22-05-2022 11:40:00 19.8 C 10.59 g/m*3 19.8 C 6.4 km/h
713 22-05-2022 11:45:00 20.1 C 10.78 g/m*3 20.1 C 4.8 km/h
714 22-05-2022 11:50:00 20.4 C 10.79 g/m*3 20.4 C 4.8 km/h
715 22-05-2022 11:55:00 20.8 C 10.68 g/m*3 20.8 C 9.7 km/h
716 22-05-2022 12:00:00 21 C 10.44 g/m*3 21 C 8.1 km/h
717 22-05-2022 12:05:00 21.1 C 10.32 g/m*3 21.1 C 9.7 km/h
718 22-05-2022 12:10:00 21.2 C 10.38 g/m*3 21.2 C 6.4 km/h
719 22-05-2022 12:15:00 21.3 C 10.07 g/m*3 21.3 C 1.6 km/h
720 22-05-2022 12:20:00 21.4 C 10.5 g/m*3 21.4 C 3.2 km/h
721 22-05-2022 12:25:00 21.7 C 11.06 g/m*3 21.7 C 1.6 km/h
722 22-05-2022 12:30:00 21.8 C 10.36 g/m*3 21.8 C 6.4 km/h
723 22-05-2022 12:35:00 21.9 C 10.61 g/m*3 21.9 C 0 km/h
724 22-05-2022 12:40:00 21.9 C 10.42 g/m*3 21.9 C 9.7 km/h
725 22-05-2022 12:45:00 21.9 C 10.61 g/m*3 21.9 C 6.4 km/h
Sensor: Nr:Datum:Temp:Abs-Feuchte:Windchill:Wind:
Aussen-T/F 726 22-05-2022 12:50:00 21.8 C 9.78 g/m*3 21.8 C 12.9 km/h
727 22-05-2022 12:55:00 21.8 C 10.17 g/m*3 21.8 C 3.2 km/h
728 22-05-2022 13:00:00 21.8 C 10.36 g/m*3 21.8 C 8.1 km/h
729 22-05-2022 13:05:00 21.9 C 10.42 g/m*3 21.9 C 6.4 km/h
730 22-05-2022 13:10:00 21.9 C 10.23 g/m*3 21.9 C 1.6 km/h
731 22-05-2022 13:15:00 22.2 C 10.41 g/m*3 22.2 C 3.2 km/h
732 22-05-2022 13:20:00 22.4 C 10.53 g/m*3 22.4 C 6.4 km/h
733 22-05-2022 13:25:00 22.7 C 10.1 g/m*3 22.7 C 4.8 km/h
734 22-05-2022 13:30:00 22.9 C 10.22 g/m*3 22.9 C 6.4 km/h
735 22-05-2022 13:35:00 22.9 C 9.4 g/m*3 22.9 C 0 km/h
736 22-05-2022 13:40:00 22.9 C 10.42 g/m*3 22.9 C 4.8 km/h
737 22-05-2022 13:45:00 22.9 C 9.61 g/m*3 22.9 C 3.2 km/h
738 22-05-2022 13:50:00 23.1 C 9.92 g/m*3 23.1 C 1.6 km/h
739 22-05-2022 13:55:00 23.2 C 9.98 g/m*3 23.2 C 4.8 km/h
740 22-05-2022 14:00:00 23.4 C 10.09 g/m*3 23.4 C 6.4 km/h
741 22-05-2022 14:05:00 23.6 C 10.21 g/m*3 23.6 C 8.1 km/h
742 22-05-2022 14:10:00 23.6 C 9.36 g/m*3 23.6 C 6.4 km/h
743 22-05-2022 14:15:00 23.6 C 9.15 g/m*3 23.6 C 8.1 km/h
744 22-05-2022 14:20:00 23.7 C 9.2 g/m*3 23.7 C 6.4 km/h
745 22-05-2022 14:25:00 23.9 C 10.38 g/m*3 23.9 C 6.4 km/h
746 22-05-2022 14:30:00 24.1 C 9.85 g/m*3 24.1 C 4.8 km/h
747 22-05-2022 14:35:00 24.2 C 9.68 g/m*3 24.2 C 6.4 km/h
748 22-05-2022 14:40:00 24.3 C 9.74 g/m*3 24.3 C 6.4 km/h
749 22-05-2022 14:45:00 24.2 C 9.46 g/m*3 24.2 C 12.9 km/h
750 22-05-2022 14:50:00 24.1 C 10.06 g/m*3 24.1 C 0 km/h
Sensor: Nr:Datum:Temp:Abs-Feuchte:Windchill:Wind:
Aussen-T/F 751 22-05-2022 14:55:00 24.2 C 10.12 g/m*3 24.2 C 0 km/h
752 22-05-2022 15:00:00 24.3 C 10.18 g/m*3 24.3 C 3.2 km/h
753 22-05-2022 15:05:00 24.5 C 9.18 g/m*3 24.5 C 4.8 km/h
754 22-05-2022 15:10:00 24.5 C 9.62 g/m*3 24.5 C 8.1 km/h
755 22-05-2022 15:15:00 24.3 C 9.74 g/m*3 24.3 C 12.9 km/h
756 22-05-2022 15:20:00 24.3 C 10.4 g/m*3 24.3 C 9.7 km/h
757 22-05-2022 15:25:00 24.4 C 10.01 g/m*3 24.4 C 9.7 km/h
758 22-05-2022 15:30:00 24.3 C 9.52 g/m*3 24.3 C 12.9 km/h
759 22-05-2022 15:35:00 24.3 C 9.52 g/m*3 24.3 C 8.1 km/h
760 22-05-2022 15:40:00 24.2 C 9.02 g/m*3 24.2 C 9.7 km/h
761 22-05-2022 15:45:00 24.1 C 9.19 g/m*3 24.1 C 6.4 km/h
762 22-05-2022 15:50:00 24.2 C 9.46 g/m*3 24.2 C 9.7 km/h
763 22-05-2022 15:55:00 24.3 C 9.96 g/m*3 24.3 C 6.4 km/h
764 22-05-2022 16:00:00 24.4 C 9.57 g/m*3 24.4 C 9.7 km/h
765 22-05-2022 16:05:00 24.4 C 9.79 g/m*3 24.4 C 11.3 km/h
766 22-05-2022 16:10:00 24.3 C 9.29 g/m*3 24.3 C 8.1 km/h
767 22-05-2022 16:15:00 24.2 C 9.9 g/m*3 24.2 C 6.4 km/h
768 22-05-2022 16:20:00 24.4 C 9.79 g/m*3 24.4 C 4.8 km/h
769 22-05-2022 16:25:00 24.5 C 9.85 g/m*3 24.5 C 8.1 km/h
770 22-05-2022 16:30:00 24.6 C 9.9 g/m*3 24.6 C 9.7 km/h
771 22-05-2022 16:35:00 24.8 C 9.1 g/m*3 24.8 C 6.4 km/h
772 22-05-2022 16:40:00 25 C 9.44 g/m*3 25 C 6.4 km/h
773 22-05-2022 16:45:00 25.1 C 9.72 g/m*3 25.1 C 6.4 km/h
774 22-05-2022 16:50:00 25.2 C 9.31 g/m*3 25.2 C 8.1 km/h
775 22-05-2022 16:55:00 25.4 C 9.42 g/m*3 25.4 C 6.4 km/h
Sensor: Nr:Datum:Temp:Abs-Feuchte:Windchill:Wind:
Aussen-T/F 776 22-05-2022 17:00:00 25.6 C 9.28 g/m*3 25.6 C 8.1 km/h
777 22-05-2022 17:05:00 25.6 C 9.52 g/m*3 25.6 C 9.7 km/h
778 22-05-2022 17:10:00 25.3 C 9.6 g/m*3 25.3 C 6.4 km/h
779 22-05-2022 17:15:00 25.3 C 9.83 g/m*3 25.3 C 6.4 km/h
780 22-05-2022 17:20:00 25.4 C 9.65 g/m*3 25.4 C 6.4 km/h
781 22-05-2022 17:25:00 25.5 C 9.94 g/m*3 25.5 C 1.6 km/h
782 22-05-2022 17:30:00 25.6 C 9.52 g/m*3 25.6 C 4.8 km/h
783 22-05-2022 17:35:00 25.5 C 9.71 g/m*3 25.5 C 6.4 km/h
784 22-05-2022 17:40:00 25.4 C 10.12 g/m*3 25.4 C 4.8 km/h
785 22-05-2022 17:45:00 25.1 C 9.95 g/m*3 25.1 C 6.4 km/h
786 22-05-2022 17:50:00 24.8 C 10.02 g/m*3 24.8 C 3.2 km/h
787 22-05-2022 17:55:00 24.6 C 9.68 g/m*3 24.6 C 3.2 km/h
788 22-05-2022 18:00:00 24.6 C 9.68 g/m*3 24.6 C 3.2 km/h
789 22-05-2022 18:05:00 24.6 C 10.13 g/m*3 24.6 C 4.8 km/h
790 22-05-2022 18:10:00 24.7 C 10.19 g/m*3 24.7 C 8.1 km/h
791 22-05-2022 18:15:00 24.6 C 10.8 g/m*3 24.6 C 9.7 km/h
792 22-05-2022 18:20:00 24.5 C 11.19 g/m*3 24.5 C 4.8 km/h
793 22-05-2022 18:25:00 24.4 C 11.79 g/m*3 24.4 C 4.8 km/h
794 22-05-2022 18:30:00 24.3 C 12.39 g/m*3 24.3 C 1.6 km/h
795 22-05-2022 18:35:00 24.3 C 12.39 g/m*3 24.3 C 4.8 km/h
796 22-05-2022 18:40:00 24.2 C 11 g/m*3 24.2 C 8.1 km/h
797 22-05-2022 18:45:00 24.1 C 11.82 g/m*3 24.1 C 4.8 km/h
798 22-05-2022 18:50:00 23.9 C 11.03 g/m*3 23.9 C 3.2 km/h
799 22-05-2022 18:55:00 23.9 C 13.2 g/m*3 23.9 C 3.2 km/h
800 22-05-2022 19:00:00 23.9 C 13.2 g/m*3 23.9 C 0 km/h
Sensor: Nr:Datum:Temp:Abs-Feuchte:Windchill:Wind:
Aussen-T/F 801 22-05-2022 19:05:00 23.7 C 12.19 g/m*3 23.7 C 4.8 km/h
802 22-05-2022 19:10:00 23.6 C 13.4 g/m*3 23.6 C 0 km/h
803 22-05-2022 19:15:00 23.4 C 11.57 g/m*3 23.4 C 4.8 km/h
804 22-05-2022 19:20:00 23.4 C 11.35 g/m*3 23.4 C 4.8 km/h
805 22-05-2022 19:25:00 23.4 C 12.83 g/m*3 23.4 C 1.6 km/h
806 22-05-2022 19:30:00 23.4 C 13.04 g/m*3 23.4 C 1.6 km/h
807 22-05-2022 19:35:00 23.4 C 13.04 g/m*3 23.4 C 0 km/h
808 22-05-2022 19:40:00 23.3 C 11.29 g/m*3 23.3 C 6.4 km/h
809 22-05-2022 19:45:00 23.3 C 11.71 g/m*3 23.3 C 8.1 km/h
810 22-05-2022 19:50:00 23.3 C 11.29 g/m*3 23.3 C 9.7 km/h
811 22-05-2022 19:55:00 23.2 C 11.64 g/m*3 23.2 C 8.1 km/h
812 22-05-2022 20:00:00 23.1 C 11.16 g/m*3 23.1 C 9.7 km/h
813 22-05-2022 20:05:00 22.9 C 11.44 g/m*3 22.9 C 4.8 km/h
814 22-05-2022 20:10:00 22.9 C 12.06 g/m*3 22.9 C 4.8 km/h
815 22-05-2022 20:15:00 22.8 C 11.58 g/m*3 22.8 C 4.8 km/h
816 22-05-2022 20:20:00 22.7 C 12.53 g/m*3 22.7 C 1.6 km/h
817 22-05-2022 20:25:00 22.5 C 12.38 g/m*3 22.5 C 1.6 km/h
818 22-05-2022 20:30:00 22.3 C 12.64 g/m*3 22.3 C 0 km/h
819 22-05-2022 20:35:00 22.2 C 13.15 g/m*3 22.2 C 0 km/h
820 22-05-2022 20:40:00 21.9 C 12.93 g/m*3 21.9 C 0 km/h
821 22-05-2022 20:45:00 21.6 C 13.09 g/m*3 21.6 C 0 km/h
822 22-05-2022 20:50:00 21.3 C 13.05 g/m*3 21.3 C 0 km/h
823 22-05-2022 20:55:00 21 C 13.01 g/m*3 21 C 1.6 km/h
824 22-05-2022 21:00:00 20.7 C 12.78 g/m*3 20.7 C 0 km/h
825 22-05-2022 21:05:00 20.3 C 12.84 g/m*3 20.3 C 0 km/h
Sensor: Nr:Datum:Temp:Abs-Feuchte:Windchill:Wind:
Aussen-T/F 826 22-05-2022 21:10:00 20 C 12.62 g/m*3 20 C 3.2 km/h
827 22-05-2022 21:15:00 19.7 C 12.57 g/m*3 19.7 C 4.8 km/h
828 22-05-2022 21:20:00 19.3 C 12.27 g/m*3 19.3 C 3.2 km/h
829 22-05-2022 21:25:00 18.9 C 11.99 g/m*3 18.9 C 3.2 km/h
830 22-05-2022 21:30:00 18.6 C 11.94 g/m*3 18.6 C 0 km/h
831 22-05-2022 21:35:00 18.3 C 11.88 g/m*3 18.3 C 0 km/h
832 22-05-2022 21:40:00 18 C 11.67 g/m*3 18 C 1.6 km/h
833 22-05-2022 21:45:00 17.8 C 11.69 g/m*3 17.8 C 4.8 km/h
834 22-05-2022 21:50:00 17.6 C 11.7 g/m*3 17.6 C 1.6 km/h
835 22-05-2022 21:55:00 17.3 C 11.49 g/m*3 17.3 C 0 km/h
836 22-05-2022 22:00:00 17.1 C 11.35 g/m*3 17.1 C 1.6 km/h
837 22-05-2022 22:05:00 16.9 C 11.36 g/m*3 16.9 C 0 km/h
838 22-05-2022 22:10:00 16.8 C 11.44 g/m*3 16.8 C 0 km/h
839 22-05-2022 22:15:00 16.7 C 11.37 g/m*3 16.7 C 0 km/h
840 22-05-2022 22:20:00 16.6 C 11.44 g/m*3 16.6 C 0 km/h
841 22-05-2022 22:25:00 16.4 C 11.31 g/m*3 16.4 C 0 km/h
842 22-05-2022 22:30:00 16.4 C 11.45 g/m*3 16.4 C 0 km/h
843 22-05-2022 22:35:00 16.3 C 11.38 g/m*3 16.3 C 0 km/h
844 22-05-2022 22:40:00 16.2 C 11.45 g/m*3 16.2 C 1.6 km/h
845 22-05-2022 22:45:00 16.2 C 11.45 g/m*3 16.2 C 0 km/h
846 22-05-2022 22:50:00 16.1 C 11.38 g/m*3 16.1 C 0 km/h
847 22-05-2022 22:55:00 16 C 11.31 g/m*3 16 C 0 km/h
848 22-05-2022 23:00:00 15.9 C 11.38 g/m*3 15.9 C 0 km/h
849 22-05-2022 23:05:00 15.9 C 11.38 g/m*3 15.9 C 1.6 km/h
850 22-05-2022 23:10:00 15.9 C 11.38 g/m*3 15.9 C 0 km/h
Sensor: Nr:Datum:Temp:Abs-Feuchte:Windchill:Wind:
Aussen-T/F 851 22-05-2022 23:15:00 15.8 C 11.31 g/m*3 15.8 C 0 km/h
852 22-05-2022 23:20:00 15.8 C 11.31 g/m*3 15.8 C 0 km/h
853 22-05-2022 23:25:00 15.7 C 11.24 g/m*3 15.7 C 0 km/h
854 22-05-2022 23:30:00 15.6 C 11.17 g/m*3 15.6 C 1.6 km/h
855 22-05-2022 23:35:00 15.5 C 11.1 g/m*3 15.5 C 0 km/h
856 22-05-2022 23:40:00 15.4 C 11.04 g/m*3 15.4 C 1.6 km/h
857 22-05-2022 23:45:00 15.3 C 10.97 g/m*3 15.3 C 3.2 km/h
858 22-05-2022 23:50:00 15.2 C 10.9 g/m*3 15.2 C 3.2 km/h
859 22-05-2022 23:55:00 15.2 C 11.03 g/m*3 15.2 C 3.2 km/h
860 23-05-2022 00:00:00 15.1 C 10.97 g/m*3 15.1 C 1.6 km/h
861 23-05-2022 00:05:00 15 C 10.9 g/m*3 15 C 3.2 km/h
862 23-05-2022 00:10:00 14.9 C 10.83 g/m*3 14.9 C 3.2 km/h
863 23-05-2022 00:15:00 14.9 C 10.83 g/m*3 14.9 C 1.6 km/h
864 23-05-2022 00:20:00 14.9 C 10.96 g/m*3 14.9 C 0 km/h
865 23-05-2022 00:25:00 14.9 C 10.96 g/m*3 14.9 C 0 km/h
866 23-05-2022 00:30:00 14.8 C 10.89 g/m*3 14.8 C 0 km/h
867 23-05-2022 00:35:00 14.8 C 10.89 g/m*3 14.8 C 0 km/h
868 23-05-2022 00:40:00 14.8 C 10.89 g/m*3 14.8 C 0 km/h
869 23-05-2022 00:45:00 14.7 C 10.83 g/m*3 14.7 C 0 km/h
870 23-05-2022 00:50:00 14.7 C 10.95 g/m*3 14.7 C 0 km/h
871 23-05-2022 00:55:00 14.6 C 10.89 g/m*3 14.6 C 0 km/h
872 23-05-2022 01:00:00 14.6 C 10.89 g/m*3 14.6 C 0 km/h
873 23-05-2022 01:05:00 14.6 C 10.89 g/m*3 14.6 C 0 km/h
874 23-05-2022 01:10:00 14.6 C 10.89 g/m*3 14.6 C 0 km/h
875 23-05-2022 01:15:00 14.6 C 10.89 g/m*3 14.6 C 0 km/h
Sensor: Nr:Datum:Temp:Abs-Feuchte:Windchill:Wind:
Aussen-T/F 876 23-05-2022 01:20:00 14.4 C 10.63 g/m*3 14.4 C 0 km/h
877 23-05-2022 01:25:00 14.3 C 10.57 g/m*3 14.3 C 0 km/h
878 23-05-2022 01:30:00 14.2 C 10.5 g/m*3 14.2 C 0 km/h
879 23-05-2022 01:35:00 14.1 C 10.44 g/m*3 14.1 C 0 km/h
880 23-05-2022 01:40:00 13.9 C 10.31 g/m*3 13.9 C 0 km/h
881 23-05-2022 01:45:00 13.8 C 10.25 g/m*3 13.8 C 0 km/h
882 23-05-2022 01:50:00 13.7 C 10.18 g/m*3 13.7 C 0 km/h
883 23-05-2022 01:55:00 13.6 C 10.12 g/m*3 13.6 C 0 km/h
884 23-05-2022 02:00:00 13.3 C 9.94 g/m*3 13.3 C 0 km/h
885 23-05-2022 02:05:00 13.2 C 9.87 g/m*3 13.2 C 0 km/h
886 23-05-2022 02:10:00 13.1 C 9.93 g/m*3 13.1 C 0 km/h
887 23-05-2022 02:15:00 13 C 9.87 g/m*3 13 C 0 km/h
888 23-05-2022 02:20:00 12.9 C 9.81 g/m*3 12.9 C 0 km/h
889 23-05-2022 02:25:00 12.8 C 9.86 g/m*3 12.8 C 0 km/h
890 23-05-2022 02:30:00 12.8 C 9.86 g/m*3 12.8 C 0 km/h
891 23-05-2022 02:35:00 12.7 C 9.8 g/m*3 12.7 C 0 km/h
892 23-05-2022 02:40:00 12.7 C 9.8 g/m*3 12.7 C 0 km/h
893 23-05-2022 02:45:00 12.6 C 9.74 g/m*3 12.6 C 0 km/h
894 23-05-2022 02:50:00 12.6 C 9.85 g/m*3 12.6 C 0 km/h
895 23-05-2022 02:55:00 12.6 C 9.85 g/m*3 12.6 C 0 km/h
896 23-05-2022 03:00:00 12.4 C 9.72 g/m*3 12.4 C 0 km/h
897 23-05-2022 03:05:00 12.4 C 9.72 g/m*3 12.4 C 0 km/h
898 23-05-2022 03:10:00 12.4 C 9.83 g/m*3 12.4 C 0 km/h
899 23-05-2022 03:15:00 12.4 C 9.83 g/m*3 12.4 C 0 km/h
900 23-05-2022 03:20:00 12.5 C 10 g/m*3 12.5 C 0 km/h
Sensor: Nr:Datum:Temp:Abs-Feuchte:Windchill:Wind:
Aussen-T/F 901 23-05-2022 03:25:00 12.6 C 10.07 g/m*3 12.6 C 0 km/h
902 23-05-2022 03:30:00 12.6 C 10.07 g/m*3 12.6 C 0 km/h
903 23-05-2022 03:35:00 12.7 C 10.13 g/m*3 12.7 C 0 km/h
904 23-05-2022 03:40:00 12.7 C 10.13 g/m*3 12.7 C 0 km/h
905 23-05-2022 03:45:00 12.7 C 10.13 g/m*3 12.7 C 0 km/h
906 23-05-2022 03:50:00 12.6 C 10.07 g/m*3 12.6 C 0 km/h
907 23-05-2022 03:55:00 12.6 C 10.07 g/m*3 12.6 C 0 km/h
908 23-05-2022 04:00:00 12.5 C 10 g/m*3 12.5 C 0 km/h
909 23-05-2022 04:05:00 12.4 C 9.94 g/m*3 12.4 C 0 km/h
910 23-05-2022 04:10:00 12.4 C 9.94 g/m*3 12.4 C 0 km/h
911 23-05-2022 04:15:00 12.3 C 9.88 g/m*3 12.3 C 0 km/h
912 23-05-2022 04:20:00 12.3 C 9.88 g/m*3 12.3 C 0 km/h
913 23-05-2022 04:25:00 12.3 C 9.99 g/m*3 12.3 C 0 km/h
914 23-05-2022 04:30:00 12.4 C 10.05 g/m*3 12.4 C 0 km/h
915 23-05-2022 04:35:00 12.5 C 10.11 g/m*3 12.5 C 0 km/h
916 23-05-2022 04:40:00 12.6 C 10.18 g/m*3 12.6 C 0 km/h
917 23-05-2022 04:45:00 12.6 C 10.18 g/m*3 12.6 C 0 km/h
918 23-05-2022 04:50:00 12.7 C 10.24 g/m*3 12.7 C 0 km/h
919 23-05-2022 04:55:00 12.7 C 10.24 g/m*3 12.7 C 0 km/h
920 23-05-2022 05:00:00 12.8 C 10.3 g/m*3 12.8 C 0 km/h
921 23-05-2022 05:05:00 12.8 C 10.3 g/m*3 12.8 C 0 km/h
922 23-05-2022 05:10:00 12.8 C 10.3 g/m*3 12.8 C 0 km/h
923 23-05-2022 05:15:00 12.9 C 10.37 g/m*3 12.9 C 0 km/h
924 23-05-2022 05:20:00 12.9 C 10.37 g/m*3 12.9 C 0 km/h
925 23-05-2022 05:25:00 13 C 10.43 g/m*3 13 C 0 km/h
Sensor: Nr:Datum:Temp:Abs-Feuchte:Windchill:Wind:
Aussen-T/F 926 23-05-2022 05:30:00 13.1 C 10.5 g/m*3 13.1 C 0 km/h
927 23-05-2022 05:35:00 13.1 C 10.5 g/m*3 13.1 C 0 km/h
928 23-05-2022 05:40:00 13.1 C 10.5 g/m*3 13.1 C 0 km/h
929 23-05-2022 05:45:00 13.2 C 10.56 g/m*3 13.2 C 0 km/h
930 23-05-2022 05:50:00 13.2 C 10.56 g/m*3 13.2 C 0 km/h
931 23-05-2022 05:55:00 13.2 C 10.56 g/m*3 13.2 C 0 km/h
932 23-05-2022 06:00:00 13.2 C 10.56 g/m*3 13.2 C 0 km/h
933 23-05-2022 06:05:00 13.3 C 10.63 g/m*3 13.3 C 0 km/h
934 23-05-2022 06:10:00 13.3 C 10.63 g/m*3 13.3 C 0 km/h
935 23-05-2022 06:15:00 13.3 C 10.63 g/m*3 13.3 C 0 km/h
936 23-05-2022 06:20:00 13.3 C 10.63 g/m*3 13.3 C 0 km/h
937 23-05-2022 06:25:00 13.3 C 10.63 g/m*3 13.3 C 0 km/h
938 23-05-2022 06:30:00 13.3 C 10.63 g/m*3 13.3 C 0 km/h
939 23-05-2022 06:35:00 13.3 C 10.63 g/m*3 13.3 C 0 km/h
940 23-05-2022 06:40:00 13.4 C 10.69 g/m*3 13.4 C 0 km/h
941 23-05-2022 06:45:00 13.4 C 10.69 g/m*3 13.4 C 0 km/h
942 23-05-2022 06:50:00 13.6 C 10.83 g/m*3 13.6 C 0 km/h
943 23-05-2022 06:55:00 13.6 C 10.83 g/m*3 13.6 C 0 km/h
944 23-05-2022 07:00:00 13.7 C 10.89 g/m*3 13.7 C 0 km/h
945 23-05-2022 07:05:00 13.8 C 10.96 g/m*3 13.8 C 0 km/h
946 23-05-2022 07:10:00 13.9 C 11.03 g/m*3 13.9 C 0 km/h
947 23-05-2022 07:15:00 14 C 11.1 g/m*3 14 C 0 km/h
948 23-05-2022 07:20:00 14.1 C 11.17 g/m*3 14.1 C 0 km/h
949 23-05-2022 07:25:00 14.2 C 11.23 g/m*3 14.2 C 1.6 km/h
950 23-05-2022 07:30:00 14.3 C 11.18 g/m*3 14.3 C 1.6 km/h
Sensor: Nr:Datum:Temp:Abs-Feuchte:Windchill:Wind:
Aussen-T/F 951 23-05-2022 07:35:00 14.3 C 10.93 g/m*3 14.3 C 3.2 km/h
952 23-05-2022 07:40:00 14.6 C 11.26 g/m*3 14.6 C 1.6 km/h
953 23-05-2022 07:45:00 14.7 C 11.21 g/m*3 14.7 C 1.6 km/h
954 23-05-2022 07:50:00 14.8 C 11.27 g/m*3 14.8 C 0 km/h
955 23-05-2022 07:55:00 14.9 C 11.22 g/m*3 14.9 C 1.6 km/h
956 23-05-2022 08:00:00 15 C 11.16 g/m*3 15 C 1.6 km/h
957 23-05-2022 08:05:00 15.1 C 11.35 g/m*3 15.1 C 6.4 km/h
958 23-05-2022 08:10:00 15.2 C 11.16 g/m*3 15.2 C 6.4 km/h
959 23-05-2022 08:15:00 15.2 C 11.29 g/m*3 15.2 C 3.2 km/h
960 23-05-2022 08:20:00 15.3 C 11.23 g/m*3 15.3 C 1.6 km/h
961 23-05-2022 08:25:00 15.3 C 11.36 g/m*3 15.3 C 0 km/h
962 23-05-2022 08:30:00 15.4 C 11.43 g/m*3 15.4 C 4.8 km/h
963 23-05-2022 08:35:00 15.6 C 11.7 g/m*3 15.6 C 0 km/h
964 23-05-2022 08:40:00 15.7 C 11.77 g/m*3 15.7 C 0 km/h
965 23-05-2022 08:45:00 15.8 C 11.85 g/m*3 15.8 C 0 km/h
966 23-05-2022 08:50:00 15.9 C 11.92 g/m*3 15.9 C 0 km/h
967 23-05-2022 08:55:00 15.9 C 11.92 g/m*3 15.9 C 0 km/h
968 23-05-2022 09:00:00 16 C 11.99 g/m*3 16 C 0 km/h
969 23-05-2022 09:05:00 16.1 C 12.2 g/m*3 16.1 C 0 km/h
970 23-05-2022 09:10:00 16.2 C 12.27 g/m*3 16.2 C 0 km/h
971 23-05-2022 09:15:00 16.2 C 12.27 g/m*3 16.2 C 0 km/h
972 23-05-2022 09:20:00 16.2 C 12 g/m*3 16.2 C 0 km/h
973 23-05-2022 09:25:00 16.2 C 12 g/m*3 16.2 C 0 km/h
974 23-05-2022 09:30:00 16.3 C 12.07 g/m*3 16.3 C 0 km/h
975 23-05-2022 09:35:00 16.4 C 12.14 g/m*3 16.4 C 0 km/h
Sensor: Nr:Datum:Temp:Abs-Feuchte:Windchill:Wind:
Aussen-T/F 976 23-05-2022 09:40:00 16.3 C 11.79 g/m*3 16.3 C 0 km/h
977 23-05-2022 09:45:00 16.4 C 11.86 g/m*3 16.4 C 0 km/h
978 23-05-2022 09:50:00 16.4 C 11.58 g/m*3 16.4 C 1.6 km/h
979 23-05-2022 09:55:00 16.7 C 11.65 g/m*3 16.7 C 4.8 km/h
980 23-05-2022 10:00:00 16.9 C 11.51 g/m*3 16.9 C 8.1 km/h
981 23-05-2022 10:05:00 17.2 C 11.57 g/m*3 17.2 C 9.7 km/h
982 23-05-2022 10:10:00 17.4 C 11.71 g/m*3 17.4 C 9.7 km/h
983 23-05-2022 10:15:00 17.6 C 11.85 g/m*3 17.6 C 8.1 km/h
984 23-05-2022 10:20:00 17.7 C 11.92 g/m*3 17.7 C 8.1 km/h
985 23-05-2022 10:25:00 17.9 C 11.91 g/m*3 17.9 C 8.1 km/h
986 23-05-2022 10:30:00 18.3 C 12.04 g/m*3 18.3 C 9.7 km/h
987 23-05-2022 10:35:00 18.5 C 11.87 g/m*3 18.5 C 8.1 km/h
988 23-05-2022 10:40:00 18.8 C 12.24 g/m*3 18.8 C 4.8 km/h
989 23-05-2022 10:45:00 19.1 C 12.13 g/m*3 19.1 C 8.1 km/h
990 23-05-2022 10:50:00 19.2 C 12.04 g/m*3 19.2 C 8.1 km/h
991 23-05-2022 10:55:00 19.3 C 12.27 g/m*3 19.3 C 3.2 km/h
992 23-05-2022 11:00:00 19.5 C 12.42 g/m*3 19.5 C 4.8 km/h
993 23-05-2022 11:05:00 19.8 C 12.47 g/m*3 19.8 C 4.8 km/h
994 23-05-2022 11:10:00 19.9 C 12.37 g/m*3 19.9 C 8.1 km/h
995 23-05-2022 11:15:00 20.2 C 12.41 g/m*3 20.2 C 9.7 km/h
996 23-05-2022 11:20:00 20.3 C 12.66 g/m*3 20.3 C 4.8 km/h
997 23-05-2022 11:25:00 20.6 C 12.89 g/m*3 20.6 C 8.1 km/h
998 23-05-2022 11:30:00 20.9 C 12.93 g/m*3 20.9 C 8.1 km/h
999 23-05-2022 11:35:00 21.3 C 12.86 g/m*3 21.3 C 11.3 km/h
1000 23-05-2022 11:40:00 21.6 C 13.09 g/m*3 21.6 C 14.5 km/h
Sensor: Nr:Datum:Temp:Abs-Feuchte:Windchill:Wind:
Aussen-T/F 1001 23-05-2022 11:45:00 21.8 C 13.43 g/m*3 21.8 C 6.4 km/h
1002 23-05-2022 11:50:00 22.1 C 13.66 g/m*3 22.1 C 14.5 km/h
1003 23-05-2022 11:55:00 22 C 13.39 g/m*3 22 C 9.7 km/h
1004 23-05-2022 12:00:00 22.2 C 13.55 g/m*3 22.2 C 4.8 km/h
1005 23-05-2022 12:05:00 22.6 C 13.86 g/m*3 22.6 C 1.6 km/h
1006 23-05-2022 12:10:00 23.1 C 14.06 g/m*3 23.1 C 12.9 km/h
1007 23-05-2022 12:15:00 23.3 C 14.01 g/m*3 23.3 C 9.7 km/h
1008 23-05-2022 12:20:00 23.6 C 14.04 g/m*3 23.6 C 6.4 km/h
1009 23-05-2022 12:25:00 23.7 C 13.69 g/m*3 23.7 C 11.3 km/h
1010 23-05-2022 12:30:00 23.7 C 14.12 g/m*3 23.7 C 8.1 km/h
1011 23-05-2022 12:35:00 23.8 C 14.2 g/m*3 23.8 C 6.4 km/h
1012 23-05-2022 12:40:00 24 C 13.92 g/m*3 24 C 8.1 km/h
1013 23-05-2022 12:45:00 24.3 C 14.38 g/m*3 24.3 C 9.7 km/h
1014 23-05-2022 12:50:00 24.6 C 14.4 g/m*3 24.6 C 8.1 km/h
1015 23-05-2022 12:55:00 24.7 C 14.26 g/m*3 24.7 C 8.1 km/h
1016 23-05-2022 13:00:00 24.9 C 14.42 g/m*3 24.9 C 6.4 km/h
1017 23-05-2022 13:05:00 25.1 C 14.35 g/m*3 25.1 C 3.2 km/h
1018 23-05-2022 13:10:00 25.3 C 14.75 g/m*3 25.3 C 4.8 km/h
1019 23-05-2022 13:15:00 25.3 C 14.28 g/m*3 25.3 C 8.1 km/h
1020 23-05-2022 13:20:00 25.2 C 14.43 g/m*3 25.2 C 1.6 km/h
1021 23-05-2022 13:25:00 25.2 C 14.67 g/m*3 25.2 C 4.8 km/h
1022 23-05-2022 13:30:00 25 C 14.5 g/m*3 25 C 4.8 km/h
1023 23-05-2022 13:35:00 25.1 C 14.35 g/m*3 25.1 C 6.4 km/h
1024 23-05-2022 13:40:00 25 C 14.96 g/m*3 25 C 6.4 km/h
1025 23-05-2022 13:45:00 25.1 C 15.28 g/m*3 25.1 C 8.1 km/h
Sensor: Nr:Datum:Temp:Abs-Feuchte:Windchill:Wind:
Aussen-T/F 1026 23-05-2022 13:50:00 25.1 C 15.05 g/m*3 25.1 C 6.4 km/h
1027 23-05-2022 13:55:00 25.1 C 14.82 g/m*3 25.1 C 6.4 km/h
1028 23-05-2022 14:00:00 24.9 C 14.88 g/m*3 24.9 C 4.8 km/h
1029 23-05-2022 14:05:00 24.9 C 14.65 g/m*3 24.9 C 4.8 km/h
1030 23-05-2022 14:10:00 24.9 C 14.42 g/m*3 24.9 C 11.3 km/h
1031 23-05-2022 14:15:00 24.8 C 15.02 g/m*3 24.8 C 3.2 km/h
1032 23-05-2022 14:20:00 24.8 C 14.8 g/m*3 24.8 C 6.4 km/h
1033 23-05-2022 14:25:00 24.5 C 14.77 g/m*3 24.5 C 9.7 km/h
1034 23-05-2022 14:30:00 24.3 C 15.27 g/m*3 24.3 C 4.8 km/h
1035 23-05-2022 14:35:00 24.2 C 14.96 g/m*3 24.2 C 4.8 km/h
1036 23-05-2022 14:40:00 24.2 C 14.96 g/m*3 24.2 C 9.7 km/h
1037 23-05-2022 14:45:00 24.3 C 15.27 g/m*3 24.3 C 3.2 km/h
1038 23-05-2022 14:50:00 24.2 C 14.96 g/m*3 24.2 C 3.2 km/h
1039 23-05-2022 14:55:00 24.1 C 14.88 g/m*3 24.1 C 4.8 km/h
1040 23-05-2022 15:00:00 24.1 C 15.1 g/m*3 24.1 C 6.4 km/h
1041 23-05-2022 15:05:00 24.1 C 15.32 g/m*3 24.1 C 6.4 km/h
1042 23-05-2022 15:10:00 24.1 C 14.88 g/m*3 24.1 C 12.9 km/h
1043 23-05-2022 15:15:00 24.2 C 15.18 g/m*3 24.2 C 11.3 km/h
1044 23-05-2022 15:20:00 24.2 C 15.18 g/m*3 24.2 C 9.7 km/h
1045 23-05-2022 15:25:00 24.3 C 15.27 g/m*3 24.3 C 6.4 km/h
1046 23-05-2022 15:30:00 24.3 C 15.05 g/m*3 24.3 C 6.4 km/h
1047 23-05-2022 15:35:00 24.5 C 15.22 g/m*3 24.5 C 9.7 km/h
1048 23-05-2022 15:40:00 24.7 C 15.39 g/m*3 24.7 C 12.9 km/h
1049 23-05-2022 15:45:00 25.1 C 15.74 g/m*3 25.1 C 9.7 km/h
1050 23-05-2022 15:50:00 25.4 C 15.77 g/m*3 25.4 C 9.7 km/h
Sensor: Nr:Datum:Temp:Abs-Feuchte:Windchill:Wind:
Aussen-T/F 1051 23-05-2022 15:55:00 25.9 C 15.49 g/m*3 25.9 C 14.5 km/h
1052 23-05-2022 16:00:00 26.1 C 15.42 g/m*3 26.1 C 8.1 km/h
1053 23-05-2022 16:05:00 26.2 C 15.76 g/m*3 26.2 C 6.4 km/h
1054 23-05-2022 16:10:00 26.3 C 15.35 g/m*3 26.3 C 16.1 km/h
1055 23-05-2022 16:15:00 26.5 C 15.02 g/m*3 26.5 C 16.1 km/h
1056 23-05-2022 16:20:00 26.4 C 15.19 g/m*3 26.4 C 8.1 km/h
1057 23-05-2022 16:25:00 26.2 C 15.26 g/m*3 26.2 C 4.8 km/h
1058 23-05-2022 16:30:00 25.9 C 14.77 g/m*3 25.9 C 8.1 km/h
1059 23-05-2022 16:35:00 25.5 C 14.44 g/m*3 25.5 C 11.3 km/h
1060 23-05-2022 16:40:00 25.2 C 14.43 g/m*3 25.2 C 1.6 km/h
1061 23-05-2022 16:45:00 25.1 C 14.58 g/m*3 25.1 C 4.8 km/h
1062 23-05-2022 16:50:00 24.9 C 14.19 g/m*3 24.9 C 9.7 km/h
1063 23-05-2022 16:55:00 24.9 C 14.65 g/m*3 24.9 C 6.4 km/h
1064 23-05-2022 17:00:00 24.8 C 15.02 g/m*3 24.8 C 16.1 km/h
1065 23-05-2022 17:05:00 24.7 C 14.71 g/m*3 24.7 C 3.2 km/h
1066 23-05-2022 17:10:00 24.4 C 14.69 g/m*3 24.4 C 6.4 km/h
1067 23-05-2022 17:15:00 24.3 C 14.83 g/m*3 24.3 C 19.3 km/h
1068 23-05-2022 17:20:00 24.2 C 14.96 g/m*3 24.2 C 4.8 km/h
1069 23-05-2022 17:25:00 24.1 C 14.44 g/m*3 24.1 C 6.4 km/h
1070 23-05-2022 17:30:00 24 C 14.58 g/m*3 24 C 8.1 km/h
1071 23-05-2022 17:35:00 23.9 C 14.49 g/m*3 23.9 C 9.7 km/h
1072 23-05-2022 17:40:00 23.8 C 13.98 g/m*3 23.8 C 8.1 km/h
1073 23-05-2022 17:45:00 23.7 C 14.33 g/m*3 23.7 C 3.2 km/h
1074 23-05-2022 17:50:00 23.7 C 14.54 g/m*3 23.7 C 11.3 km/h
1075 23-05-2022 17:55:00 23.3 C 14.22 g/m*3 23.3 C 20.9 km/h
Sensor: Nr:Datum:Temp:Abs-Feuchte:Windchill:Wind:
Aussen-T/F 1076 23-05-2022 18:00:00 22.7 C 14.14 g/m*3 22.7 C 11.3 km/h
1077 23-05-2022 18:05:00 22.2 C 14.14 g/m*3 22.2 C 11.3 km/h
1078 23-05-2022 18:10:00 21.8 C 14.2 g/m*3 21.8 C 9.7 km/h
1079 23-05-2022 18:15:00 21.6 C 14.22 g/m*3 21.6 C 11.3 km/h
1080 23-05-2022 18:20:00 21.2 C 14.64 g/m*3 21.2 C 12.9 km/h
1081 23-05-2022 18:25:00 20.9 C 14.93 g/m*3 20.9 C 8.1 km/h
1082 23-05-2022 18:30:00 20.6 C 14.68 g/m*3 20.6 C 14.5 km/h
1083 23-05-2022 18:35:00 20.3 C 14.77 g/m*3 20.3 C 14.5 km/h
1084 23-05-2022 18:40:00 19.8 C 14.52 g/m*3 19.8 C 16.1 km/h
1085 23-05-2022 18:45:00 19.6 C 14.35 g/m*3 19.6 C 4.8 km/h
1086 23-05-2022 18:50:00 19.5 C 14.6 g/m*3 19.5 C 4.8 km/h
1087 23-05-2022 18:55:00 19.3 C 14.43 g/m*3 19.3 C 6.4 km/h
1088 23-05-2022 19:00:00 19.2 C 14.51 g/m*3 19.2 C 4.8 km/h
1089 23-05-2022 19:05:00 19.2 C 14.68 g/m*3 19.2 C 3.2 km/h
1090 23-05-2022 19:10:00 19.3 C 14.76 g/m*3 19.3 C 0 km/h
1091 23-05-2022 19:15:00 19.3 C 14.6 g/m*3 19.3 C 3.2 km/h
1092 23-05-2022 19:20:00 19.4 C 14.68 g/m*3 19.4 C 3.2 km/h
1093 23-05-2022 19:25:00 19.8 C 15.2 g/m*3 19.8 C 3.2 km/h
1094 23-05-2022 19:30:00 20.1 C 15.3 g/m*3 20.1 C 3.2 km/h
1095 23-05-2022 19:35:00 20.3 C 15.13 g/m*3 20.3 C 3.2 km/h
1096 23-05-2022 19:40:00 20.6 C 15.03 g/m*3 20.6 C 9.7 km/h
1097 23-05-2022 19:45:00 20.8 C 15.03 g/m*3 20.8 C 6.4 km/h
1098 23-05-2022 19:50:00 20.8 C 15.21 g/m*3 20.8 C 6.4 km/h
1099 23-05-2022 19:55:00 20.8 C 14.85 g/m*3 20.8 C 11.3 km/h
1100 23-05-2022 20:00:00 20.8 C 14.85 g/m*3 20.8 C 11.3 km/h
Sensor: Nr:Datum:Temp:Abs-Feuchte:Windchill:Wind:
Aussen-T/F 1101 23-05-2022 20:05:00 20.7 C 14.76 g/m*3 20.7 C 3.2 km/h
1102 23-05-2022 20:10:00 20.7 C 14.94 g/m*3 20.7 C 6.4 km/h
1103 23-05-2022 20:15:00 20.6 C 15.03 g/m*3 20.6 C 0 km/h
1104 23-05-2022 20:20:00 20.3 C 14.77 g/m*3 20.3 C 1.6 km/h
1105 23-05-2022 20:25:00 20.1 C 14.78 g/m*3 20.1 C 1.6 km/h
1106 23-05-2022 20:30:00 19.9 C 14.6 g/m*3 19.9 C 4.8 km/h
1107 23-05-2022 20:35:00 19.8 C 14.69 g/m*3 19.8 C 6.4 km/h
1108 23-05-2022 20:40:00 19.6 C 14.35 g/m*3 19.6 C 9.7 km/h
1109 23-05-2022 20:45:00 19.5 C 14.1 g/m*3 19.5 C 17.7 km/h
1110 23-05-2022 20:50:00 19.4 C 14.01 g/m*3 19.4 C 9.7 km/h
1111 23-05-2022 20:55:00 19.4 C 13.85 g/m*3 19.4 C 19.3 km/h
1112 23-05-2022 21:00:00 19.5 C 13.93 g/m*3 19.5 C 20.9 km/h
1113 23-05-2022 21:05:00 19.5 C 13.93 g/m*3 19.5 C 16.1 km/h
1114 23-05-2022 21:10:00 19.4 C 13.85 g/m*3 19.4 C 17.7 km/h
1115 23-05-2022 21:15:00 19.4 C 13.85 g/m*3 19.4 C 12.9 km/h
1116 23-05-2022 21:20:00 19.3 C 13.77 g/m*3 19.3 C 16.1 km/h
1117 23-05-2022 21:25:00 19.3 C 13.93 g/m*3 19.3 C 11.3 km/h
1118 23-05-2022 21:30:00 19.2 C 13.85 g/m*3 19.2 C 9.7 km/h
1119 23-05-2022 21:35:00 19.2 C 13.85 g/m*3 19.2 C 12.9 km/h
1120 23-05-2022 21:40:00 19.1 C 13.77 g/m*3 19.1 C 12.9 km/h
1121 23-05-2022 21:45:00 19 C 13.69 g/m*3 19 C 16.1 km/h
1122 23-05-2022 21:50:00 18.9 C 13.61 g/m*3 18.9 C 16.1 km/h
1123 23-05-2022 21:55:00 18.9 C 13.61 g/m*3 18.9 C 12.9 km/h
1124 23-05-2022 22:00:00 18.8 C 13.53 g/m*3 18.8 C 14.5 km/h
1125 23-05-2022 22:05:00 18.8 C 13.53 g/m*3 18.8 C 12.9 km/h
Sensor: Nr:Datum:Temp:Abs-Feuchte:Windchill:Wind:
Aussen-T/F 1126 23-05-2022 22:10:00 18.8 C 13.69 g/m*3 18.8 C 16.1 km/h
1127 23-05-2022 22:15:00 18.8 C 13.69 g/m*3 18.8 C 19.3 km/h
1128 23-05-2022 22:20:00 18.7 C 13.61 g/m*3 18.7 C 11.3 km/h
1129 23-05-2022 22:25:00 18.6 C 13.53 g/m*3 18.6 C 11.3 km/h
1130 23-05-2022 22:30:00 18.4 C 13.05 g/m*3 18.4 C 12.9 km/h
1131 23-05-2022 22:35:00 18.3 C 12.82 g/m*3 18.3 C 17.7 km/h
1132 23-05-2022 22:40:00 18.2 C 12.75 g/m*3 18.2 C 11.3 km/h
1133 23-05-2022 22:45:00 18.1 C 12.67 g/m*3 18.1 C 11.3 km/h
1134 23-05-2022 22:50:00 17.9 C 12.52 g/m*3 17.9 C 12.9 km/h
1135 23-05-2022 22:55:00 17.8 C 12.45 g/m*3 17.8 C 12.9 km/h
1136 23-05-2022 23:00:00 17.8 C 12.6 g/m*3 17.8 C 9.7 km/h
1137 23-05-2022 23:05:00 17.7 C 12.52 g/m*3 17.7 C 11.3 km/h
1138 23-05-2022 23:10:00 17.6 C 12.45 g/m*3 17.6 C 9.7 km/h
1139 23-05-2022 23:15:00 17.6 C 12.6 g/m*3 17.6 C 8.1 km/h
1140 23-05-2022 23:20:00 17.4 C 12.3 g/m*3 17.4 C 14.5 km/h
1141 23-05-2022 23:25:00 17.4 C 12.3 g/m*3 17.4 C 12.9 km/h
1142 23-05-2022 23:30:00 17.3 C 12.23 g/m*3 17.3 C 11.3 km/h
1143 23-05-2022 23:35:00 17.3 C 12.23 g/m*3 17.3 C 12.9 km/h
1144 23-05-2022 23:40:00 17.3 C 12.08 g/m*3 17.3 C 19.3 km/h
1145 23-05-2022 23:45:00 17.3 C 12.08 g/m*3 17.3 C 14.5 km/h
1146 23-05-2022 23:50:00 17.2 C 12.01 g/m*3 17.2 C 14.5 km/h
1147 23-05-2022 23:55:00 17.2 C 12.01 g/m*3 17.2 C 11.3 km/h
1148 24-05-2022 00:00:00 17.1 C 11.94 g/m*3 17.1 C 11.3 km/h
1149 24-05-2022 00:05:00 17.1 C 11.94 g/m*3 17.1 C 11.3 km/h
1150 24-05-2022 00:10:00 17 C 12.01 g/m*3 17 C 9.7 km/h
Sensor: Nr:Datum:Temp:Abs-Feuchte:Windchill:Wind:
Aussen-T/F 1151 24-05-2022 00:15:00 16.9 C 11.79 g/m*3 16.9 C 9.7 km/h
1152 24-05-2022 00:20:00 16.9 C 11.94 g/m*3 16.9 C 11.3 km/h
1153 24-05-2022 00:25:00 16.8 C 11.87 g/m*3 16.8 C 9.7 km/h
1154 24-05-2022 00:30:00 16.7 C 11.51 g/m*3 16.7 C 11.3 km/h
1155 24-05-2022 00:35:00 16.7 C 11.51 g/m*3 16.7 C 11.3 km/h
1156 24-05-2022 00:40:00 16.6 C 11.44 g/m*3 16.6 C 14.5 km/h
1157 24-05-2022 00:45:00 16.4 C 11.31 g/m*3 16.4 C 14.5 km/h
1158 24-05-2022 00:50:00 16.4 C 11.31 g/m*3 16.4 C 14.5 km/h
1159 24-05-2022 00:55:00 16.3 C 11.1 g/m*3 16.3 C 14.5 km/h
1160 24-05-2022 01:00:00 16.3 C 11.24 g/m*3 16.3 C 9.7 km/h
1161 24-05-2022 01:05:00 16.2 C 11.17 g/m*3 16.2 C 6.4 km/h
1162 24-05-2022 01:10:00 16.2 C 11.17 g/m*3 16.2 C 3.2 km/h
1163 24-05-2022 01:15:00 16.1 C 11.24 g/m*3 16.1 C 4.8 km/h
1164 24-05-2022 01:20:00 16.1 C 11.24 g/m*3 16.1 C 3.2 km/h
1165 24-05-2022 01:25:00 16.1 C 11.24 g/m*3 16.1 C 3.2 km/h
1166 24-05-2022 01:30:00 16 C 11.17 g/m*3 16 C 6.4 km/h
1167 24-05-2022 01:35:00 15.9 C 11.1 g/m*3 15.9 C 8.1 km/h
1168 24-05-2022 01:40:00 15.8 C 11.04 g/m*3 15.8 C 4.8 km/h
1169 24-05-2022 01:45:00 15.7 C 10.97 g/m*3 15.7 C 3.2 km/h
1170 24-05-2022 01:50:00 15.6 C 11.04 g/m*3 15.6 C 4.8 km/h
1171 24-05-2022 01:55:00 15.4 C 10.9 g/m*3 15.4 C 6.4 km/h
1172 24-05-2022 02:00:00 15.3 C 10.84 g/m*3 15.3 C 3.2 km/h
1173 24-05-2022 02:05:00 15.2 C 10.9 g/m*3 15.2 C 1.6 km/h
1174 24-05-2022 02:10:00 15 C 10.77 g/m*3 15 C 1.6 km/h
1175 24-05-2022 02:15:00 14.8 C 10.77 g/m*3 14.8 C 6.4 km/h
Sensor: Nr:Datum:Temp:Abs-Feuchte:Windchill:Wind:
Aussen-T/F 1176 24-05-2022 02:20:00 14.7 C 10.7 g/m*3 14.7 C 3.2 km/h
1177 24-05-2022 02:25:00 14.6 C 10.76 g/m*3 14.6 C 6.4 km/h
1178 24-05-2022 02:30:00 14.6 C 10.76 g/m*3 14.6 C 6.4 km/h
1179 24-05-2022 02:35:00 14.6 C 10.76 g/m*3 14.6 C 3.2 km/h
1180 24-05-2022 02:40:00 14.4 C 10.63 g/m*3 14.4 C 4.8 km/h
1181 24-05-2022 02:45:00 14.3 C 10.69 g/m*3 14.3 C 3.2 km/h
1182 24-05-2022 02:50:00 14.3 C 10.69 g/m*3 14.3 C 4.8 km/h
1183 24-05-2022 02:55:00 14.2 C 10.62 g/m*3 14.2 C 1.6 km/h
1184 24-05-2022 03:00:00 14.2 C 10.75 g/m*3 14.2 C 4.8 km/h
1185 24-05-2022 03:05:00 14.3 C 10.81 g/m*3 14.3 C 1.6 km/h
1186 24-05-2022 03:10:00 14.2 C 10.75 g/m*3 14.2 C 3.2 km/h
1187 24-05-2022 03:15:00 14.2 C 10.75 g/m*3 14.2 C 1.6 km/h
1188 24-05-2022 03:20:00 14.3 C 10.81 g/m*3 14.3 C 6.4 km/h
1189 24-05-2022 03:25:00 14.3 C 10.81 g/m*3 14.3 C 3.2 km/h
1190 24-05-2022 03:30:00 14.4 C 10.88 g/m*3 14.4 C 0 km/h
1191 24-05-2022 03:35:00 14.5 C 10.94 g/m*3 14.5 C 0 km/h
1192 24-05-2022 03:40:00 14.6 C 11.01 g/m*3 14.6 C 1.6 km/h
1193 24-05-2022 03:45:00 14.6 C 11.01 g/m*3 14.6 C 0 km/h
1194 24-05-2022 03:50:00 14.7 C 11.08 g/m*3 14.7 C 0 km/h
1195 24-05-2022 03:55:00 14.7 C 11.08 g/m*3 14.7 C 0 km/h
1196 24-05-2022 04:00:00 14.7 C 11.08 g/m*3 14.7 C 0 km/h
1197 24-05-2022 04:05:00 14.7 C 11.08 g/m*3 14.7 C 0 km/h
1198 24-05-2022 04:10:00 14.7 C 11.08 g/m*3 14.7 C 0 km/h
1199 24-05-2022 04:15:00 14.7 C 11.08 g/m*3 14.7 C 1.6 km/h
1200 24-05-2022 04:20:00 14.7 C 11.08 g/m*3 14.7 C 0 km/h
Sensor: Nr:Datum:Temp:Abs-Feuchte:Windchill:Wind:
Aussen-T/F 1201 24-05-2022 04:25:00 14.7 C 11.08 g/m*3 14.7 C 0 km/h
1202 24-05-2022 04:30:00 14.7 C 11.08 g/m*3 14.7 C 0 km/h
1203 24-05-2022 04:35:00 14.7 C 11.08 g/m*3 14.7 C 0 km/h
1204 24-05-2022 04:40:00 14.7 C 11.08 g/m*3 14.7 C 0 km/h
1205 24-05-2022 04:45:00 14.7 C 11.08 g/m*3 14.7 C 0 km/h
1206 24-05-2022 04:50:00 14.7 C 11.08 g/m*3 14.7 C 1.6 km/h
1207 24-05-2022 04:55:00 14.7 C 11.08 g/m*3 14.7 C 0 km/h
1208 24-05-2022 05:00:00 14.7 C 11.08 g/m*3 14.7 C 0 km/h
1209 24-05-2022 05:05:00 14.7 C 11.08 g/m*3 14.7 C 0 km/h
1210 24-05-2022 05:10:00 14.7 C 10.95 g/m*3 14.7 C 0 km/h
1211 24-05-2022 05:15:00 14.7 C 10.95 g/m*3 14.7 C 3.2 km/h
1212 24-05-2022 05:20:00 14.7 C 10.95 g/m*3 14.7 C 1.6 km/h
1213 24-05-2022 05:25:00 14.7 C 10.95 g/m*3 14.7 C 0 km/h
1214 24-05-2022 05:30:00 14.8 C 11.02 g/m*3 14.8 C 0 km/h
1215 24-05-2022 05:35:00 14.8 C 11.15 g/m*3 14.8 C 0 km/h
1216 24-05-2022 05:40:00 14.8 C 11.15 g/m*3 14.8 C 0 km/h
1217 24-05-2022 05:45:00 14.8 C 11.02 g/m*3 14.8 C 0 km/h
1218 24-05-2022 05:50:00 14.8 C 11.15 g/m*3 14.8 C 0 km/h
1219 24-05-2022 05:55:00 14.8 C 11.15 g/m*3 14.8 C 0 km/h
1220 24-05-2022 06:00:00 14.8 C 11.15 g/m*3 14.8 C 1.6 km/h
1221 24-05-2022 06:05:00 14.8 C 11.27 g/m*3 14.8 C 0 km/h
1222 24-05-2022 06:10:00 14.8 C 11.27 g/m*3 14.8 C 0 km/h
1223 24-05-2022 06:15:00 14.8 C 11.4 g/m*3 14.8 C 0 km/h
1224 24-05-2022 06:20:00 14.7 C 11.33 g/m*3 14.7 C 1.6 km/h
1225 24-05-2022 06:25:00 14.7 C 11.33 g/m*3 14.7 C 1.6 km/h
Sensor: Nr:Datum:Temp:Abs-Feuchte:Windchill:Wind:
Aussen-T/F 1226 24-05-2022 06:30:00 14.7 C 11.33 g/m*3 14.7 C 0 km/h
1227 24-05-2022 06:35:00 14.6 C 11.26 g/m*3 14.6 C 0 km/h
1228 24-05-2022 06:40:00 14.6 C 11.39 g/m*3 14.6 C 0 km/h
1229 24-05-2022 06:45:00 14.6 C 11.39 g/m*3 14.6 C 0 km/h
1230 24-05-2022 06:50:00 14.6 C 11.39 g/m*3 14.6 C 0 km/h
1231 24-05-2022 06:55:00 14.5 C 11.44 g/m*3 14.5 C 0 km/h
1232 24-05-2022 07:00:00 14.5 C 11.44 g/m*3 14.5 C 0 km/h
1233 24-05-2022 07:05:00 14.5 C 11.44 g/m*3 14.5 C 0 km/h
1234 24-05-2022 07:10:00 14.4 C 11.37 g/m*3 14.4 C 3.2 km/h
1235 24-05-2022 07:15:00 14.4 C 11.5 g/m*3 14.4 C 14.5 km/h
1236 24-05-2022 07:20:00 14.3 C 11.43 g/m*3 14.3 C 16.1 km/h
1237 24-05-2022 07:25:00 14.2 C 11.23 g/m*3 14.2 C 14.5 km/h
1238 24-05-2022 07:30:00 13.9 C 11.03 g/m*3 13.9 C 12.9 km/h
1239 24-05-2022 07:35:00 13.7 C 10.89 g/m*3 13.7 C 20.9 km/h
1240 24-05-2022 07:40:00 13.5 C 10.76 g/m*3 13.5 C 17.7 km/h
1241 24-05-2022 07:45:00 13.3 C 10.63 g/m*3 13.3 C 11.3 km/h
1242 24-05-2022 07:50:00 13.2 C 10.56 g/m*3 13.2 C 6.4 km/h
1243 24-05-2022 07:55:00 13.2 C 10.56 g/m*3 13.2 C 4.8 km/h
1244 24-05-2022 08:00:00 13.1 C 10.61 g/m*3 13.1 C 4.8 km/h
1245 24-05-2022 08:05:00 13.1 C 10.61 g/m*3 13.1 C 3.2 km/h
1246 24-05-2022 08:10:00 13.1 C 10.61 g/m*3 13.1 C 0 km/h
1247 24-05-2022 08:15:00 13.1 C 10.61 g/m*3 13.1 C 1.6 km/h
1248 24-05-2022 08:20:00 13.2 C 10.79 g/m*3 13.2 C 1.6 km/h
1249 24-05-2022 08:25:00 13.4 C 10.93 g/m*3 13.4 C 0 km/h
1250 24-05-2022 08:30:00 13.6 C 11.06 g/m*3 13.6 C 0 km/h
Sensor: Nr:Datum:Temp:Abs-Feuchte:Windchill:Wind:
Aussen-T/F 1251 24-05-2022 08:35:00 13.7 C 11.13 g/m*3 13.7 C 3.2 km/h
1252 24-05-2022 08:40:00 13.7 C 11.13 g/m*3 13.7 C 4.8 km/h
1253 24-05-2022 08:45:00 13.7 C 11.13 g/m*3 13.7 C 3.2 km/h
1254 24-05-2022 08:50:00 13.7 C 11.13 g/m*3 13.7 C 3.2 km/h
1255 24-05-2022 08:55:00 13.7 C 11.13 g/m*3 13.7 C 0 km/h
1256 24-05-2022 09:00:00 13.8 C 11.2 g/m*3 13.8 C 4.8 km/h
1257 24-05-2022 09:05:00 13.8 C 11.2 g/m*3 13.8 C 6.4 km/h
1258 24-05-2022 09:10:00 13.8 C 11.2 g/m*3 13.8 C 6.4 km/h
1259 24-05-2022 09:15:00 13.6 C 11.06 g/m*3 13.6 C 12.9 km/h
1260 24-05-2022 09:20:00 13.6 C 11.06 g/m*3 13.6 C 8.1 km/h
1261 24-05-2022 09:25:00 13.5 C 10.99 g/m*3 13.5 C 4.8 km/h
1262 24-05-2022 09:30:00 13.6 C 11.06 g/m*3 13.6 C 6.4 km/h
1263 24-05-2022 09:35:00 13.7 C 11.13 g/m*3 13.7 C 11.3 km/h
1264 24-05-2022 09:40:00 13.9 C 11.27 g/m*3 13.9 C 16.1 km/h
1265 24-05-2022 09:45:00 13.9 C 11.27 g/m*3 13.9 C 11.3 km/h
1266 24-05-2022 09:50:00 14.1 C 11.41 g/m*3 14.1 C 8.1 km/h
1267 24-05-2022 09:55:00 14.3 C 11.43 g/m*3 14.3 C 11.3 km/h
1268 24-05-2022 10:00:00 14.3 C 11.43 g/m*3 14.3 C 9.7 km/h
1269 24-05-2022 10:05:00 14.2 C 11.23 g/m*3 14.2 C 9.7 km/h
1270 24-05-2022 10:10:00 14.2 C 11.23 g/m*3 14.2 C 8.1 km/h
1271 24-05-2022 10:15:00 14.1 C 11.17 g/m*3 14.1 C 16.1 km/h
1272 24-05-2022 10:20:00 14.1 C 11.17 g/m*3 14.1 C 12.9 km/h
1273 24-05-2022 10:25:00 14.1 C 11.17 g/m*3 14.1 C 8.1 km/h
1274 24-05-2022 10:30:00 14.2 C 11.36 g/m*3 14.2 C 9.7 km/h
1275 24-05-2022 10:35:00 14.2 C 11.23 g/m*3 14.2 C 14.5 km/h
Sensor: Nr:Datum:Temp:Abs-Feuchte:Windchill:Wind:
Aussen-T/F 1276 24-05-2022 10:40:00 14.3 C 11.3 g/m*3 14.3 C 11.3 km/h
1277 24-05-2022 10:45:00 14.5 C 11.44 g/m*3 14.5 C 11.3 km/h
1278 24-05-2022 10:50:00 14.6 C 11.26 g/m*3 14.6 C 9.7 km/h
1279 24-05-2022 10:55:00 14.6 C 11.01 g/m*3 14.6 C 19.3 km/h
1280 24-05-2022 11:00:00 14.5 C 10.82 g/m*3 14.5 C 11.3 km/h
1281 24-05-2022 11:05:00 14.6 C 11.01 g/m*3 14.6 C 11.3 km/h
1282 24-05-2022 11:10:00 14.7 C 11.08 g/m*3 14.7 C 9.7 km/h
1283 24-05-2022 11:15:00 14.9 C 11.09 g/m*3 14.9 C 4.8 km/h
1284 24-05-2022 11:20:00 15.2 C 11.16 g/m*3 15.2 C 14.5 km/h
1285 24-05-2022 11:25:00 15.2 C 10.77 g/m*3 15.2 C 11.3 km/h
1286 24-05-2022 11:30:00 15.4 C 11.17 g/m*3 15.4 C 14.5 km/h
1287 24-05-2022 11:35:00 15.6 C 10.91 g/m*3 15.6 C 12.9 km/h
1288 24-05-2022 11:40:00 15.8 C 11.04 g/m*3 15.8 C 14.5 km/h
1289 24-05-2022 11:45:00 15.9 C 10.83 g/m*3 15.9 C 19.3 km/h
1290 24-05-2022 11:50:00 16.1 C 10.97 g/m*3 16.1 C 11.3 km/h
1291 24-05-2022 11:55:00 16.2 C 11.03 g/m*3 16.2 C 9.7 km/h
1292 24-05-2022 12:00:00 16.3 C 10.68 g/m*3 16.3 C 14.5 km/h
1293 24-05-2022 12:05:00 16.3 C 10.82 g/m*3 16.3 C 24.1 km/h
1294 24-05-2022 12:10:00 16.2 C 10.34 g/m*3 16.2 C 17.7 km/h
1295 24-05-2022 12:15:00 16.3 C 10.82 g/m*3 16.3 C 17.7 km/h
1296 24-05-2022 12:20:00 16.5 C 10.81 g/m*3 16.5 C 14.5 km/h
1297 24-05-2022 12:25:00 16.8 C 10.87 g/m*3 16.8 C 17.7 km/h
1298 24-05-2022 12:30:00 17.1 C 10.63 g/m*3 17.1 C 20.9 km/h
1299 24-05-2022 12:35:00 16.9 C 10.5 g/m*3 16.9 C 19.3 km/h
1300 24-05-2022 12:40:00 16.5 C 9.97 g/m*3 16.5 C 12.9 km/h
Sensor: Nr:Datum:Temp:Abs-Feuchte:Windchill:Wind:
Aussen-T/F 1301 24-05-2022 12:45:00 16.2 C 10.07 g/m*3 16.2 C 11.3 km/h
1302 24-05-2022 12:50:00 16 C 10.22 g/m*3 16 C 14.5 km/h
1303 24-05-2022 12:55:00 16.1 C 10.28 g/m*3 16.1 C 14.5 km/h
1304 24-05-2022 13:00:00 16.5 C 10.53 g/m*3 16.5 C 14.5 km/h
1305 24-05-2022 13:05:00 16.8 C 10.58 g/m*3 16.8 C 12.9 km/h
1306 24-05-2022 13:10:00 17.2 C 10.84 g/m*3 17.2 C 14.5 km/h
1307 24-05-2022 13:15:00 17.3 C 10.75 g/m*3 17.3 C 12.9 km/h
1308 24-05-2022 13:20:00 17.4 C 10.67 g/m*3 17.4 C 19.3 km/h
1309 24-05-2022 13:25:00 17.5 C 10.59 g/m*3 17.5 C 14.5 km/h
1310 24-05-2022 13:30:00 17.6 C 10.5 g/m*3 17.6 C 20.9 km/h
1311 24-05-2022 13:35:00 17.8 C 10.32 g/m*3 17.8 C 12.9 km/h
1312 24-05-2022 13:40:00 17.9 C 10.23 g/m*3 17.9 C 9.7 km/h
1313 24-05-2022 13:45:00 17.6 C 9.6 g/m*3 17.6 C 12.9 km/h
1314 24-05-2022 13:50:00 17.3 C 10.16 g/m*3 17.3 C 6.4 km/h
1315 24-05-2022 13:55:00 17.1 C 10.34 g/m*3 17.1 C 4.8 km/h
1316 24-05-2022 14:00:00 17 C 10.27 g/m*3 17 C 3.2 km/h
1317 24-05-2022 14:05:00 16.9 C 10.79 g/m*3 16.9 C 3.2 km/h
1318 24-05-2022 14:10:00 17 C 10.56 g/m*3 17 C 8.1 km/h
1319 24-05-2022 14:15:00 17.4 C 10.97 g/m*3 17.4 C 6.4 km/h
1320 24-05-2022 14:20:00 17.8 C 10.78 g/m*3 17.8 C 12.9 km/h
1321 24-05-2022 14:25:00 18 C 10.6 g/m*3 18 C 16.1 km/h
1322 24-05-2022 14:30:00 17.9 C 10.54 g/m*3 17.9 C 12.9 km/h
1323 24-05-2022 14:35:00 18 C 10.29 g/m*3 18 C 14.5 km/h
1324 24-05-2022 14:40:00 18.3 C 10.63 g/m*3 18.3 C 9.7 km/h
1325 24-05-2022 14:45:00 18.8 C 9.82 g/m*3 18.8 C 22.5 km/h
Sensor: Nr:Datum:Temp:Abs-Feuchte:Windchill:Wind:
Aussen-T/F 1326 24-05-2022 14:50:00 19.1 C 9.84 g/m*3 19.1 C 19.3 km/h
1327 24-05-2022 14:55:00 19.2 C 9.89 g/m*3 19.2 C 17.7 km/h
1328 24-05-2022 15:00:00 19.2 C 10.22 g/m*3 19.2 C 12.9 km/h
1329 24-05-2022 15:05:00 19.2 C 9.89 g/m*3 19.2 C 16.1 km/h
1330 24-05-2022 15:10:00 19.1 C 10.49 g/m*3 19.1 C 20.9 km/h
1331 24-05-2022 15:15:00 19.3 C 10.45 g/m*3 19.3 C 19.3 km/h
1332 24-05-2022 15:20:00 19.6 C 10.97 g/m*3 19.6 C 22.5 km/h
1333 24-05-2022 15:25:00 19.8 C 10.25 g/m*3 19.8 C 16.1 km/h
1334 24-05-2022 15:30:00 19.7 C 10.36 g/m*3 19.7 C 16.1 km/h
1335 24-05-2022 15:35:00 19.7 C 10.36 g/m*3 19.7 C 14.5 km/h
1336 24-05-2022 15:40:00 19.8 C 10.08 g/m*3 19.8 C 17.7 km/h
1337 24-05-2022 15:45:00 19.8 C 10.08 g/m*3 19.8 C 16.1 km/h
1338 24-05-2022 15:50:00 19.8 C 10.25 g/m*3 19.8 C 9.7 km/h
1339 24-05-2022 15:55:00 19.4 C 9.84 g/m*3 19.4 C 19.3 km/h
1340 24-05-2022 16:00:00 19.1 C 10.33 g/m*3 19.1 C 8.1 km/h
1341 24-05-2022 16:05:00 18.8 C 10.15 g/m*3 18.8 C 12.9 km/h
1342 24-05-2022 16:10:00 18.2 C 9.79 g/m*3 18.2 C 19.3 km/h
1343 24-05-2022 16:15:00 17.7 C 10.11 g/m*3 17.7 C 14.5 km/h
1344 24-05-2022 16:20:00 17.5 C 9.84 g/m*3 17.5 C 11.3 km/h
1345 24-05-2022 16:25:00 17.7 C 9.81 g/m*3 17.7 C 19.3 km/h
1346 24-05-2022 16:30:00 18 C 9.83 g/m*3 18 C 12.9 km/h
1347 24-05-2022 16:35:00 18.3 C 10.32 g/m*3 18.3 C 11.3 km/h
1348 24-05-2022 16:40:00 18.4 C 9.59 g/m*3 18.4 C 12.9 km/h
1349 24-05-2022 16:45:00 18.2 C 9.33 g/m*3 18.2 C 33.8 km/h
1350 24-05-2022 16:50:00 18 C 9.83 g/m*3 18 C 16.1 km/h
Sensor: Nr:Datum:Temp:Abs-Feuchte:Windchill:Wind:
Aussen-T/F 1351 24-05-2022 16:55:00 17.8 C 9.87 g/m*3 17.8 C 12.9 km/h
1352 24-05-2022 17:00:00 17.8 C 9.56 g/m*3 17.8 C 9.7 km/h
1353 24-05-2022 17:05:00 17.9 C 9.47 g/m*3 17.9 C 11.3 km/h
1354 24-05-2022 17:10:00 17.8 C 9.41 g/m*3 17.8 C 12.9 km/h
1355 24-05-2022 17:15:00 17.6 C 9.45 g/m*3 17.6 C 14.5 km/h
1356 24-05-2022 17:20:00 17.4 C 9.04 g/m*3 17.4 C 14.5 km/h
1357 24-05-2022 17:25:00 17.2 C 8.93 g/m*3 17.2 C 12.9 km/h
1358 24-05-2022 17:30:00 17.1 C 9.32 g/m*3 17.1 C 9.7 km/h
1359 24-05-2022 17:35:00 17.1 C 9.32 g/m*3 17.1 C 6.4 km/h
1360 24-05-2022 17:40:00 17.1 C 9.75 g/m*3 17.1 C 3.2 km/h
1361 24-05-2022 17:45:00 17.2 C 9.67 g/m*3 17.2 C 1.6 km/h
1362 24-05-2022 17:50:00 17.4 C 9.63 g/m*3 17.4 C 12.9 km/h
1363 24-05-2022 17:55:00 17.6 C 9.6 g/m*3 17.6 C 8.1 km/h
1364 24-05-2022 18:00:00 17.7 C 9.96 g/m*3 17.7 C 6.4 km/h
1365 24-05-2022 18:05:00 17.7 C 9.66 g/m*3 17.7 C 6.4 km/h
1366 24-05-2022 18:10:00 17.7 C 9.81 g/m*3 17.7 C 8.1 km/h
1367 24-05-2022 18:15:00 17.7 C 9.66 g/m*3 17.7 C 9.7 km/h
1368 24-05-2022 18:20:00 17.8 C 10.02 g/m*3 17.8 C 6.4 km/h
1369 24-05-2022 18:25:00 17.8 C 10.17 g/m*3 17.8 C 6.4 km/h
1370 24-05-2022 18:30:00 17.8 C 9.87 g/m*3 17.8 C 6.4 km/h
1371 24-05-2022 18:35:00 17.8 C 10.17 g/m*3 17.8 C 4.8 km/h
1372 24-05-2022 18:40:00 17.8 C 10.02 g/m*3 17.8 C 4.8 km/h
1373 24-05-2022 18:45:00 17.9 C 10.23 g/m*3 17.9 C 6.4 km/h
1374 24-05-2022 18:50:00 17.9 C 9.92 g/m*3 17.9 C 6.4 km/h
1375 24-05-2022 18:55:00 17.8 C 9.87 g/m*3 17.8 C 3.2 km/h
Sensor: Nr:Datum:Temp:Abs-Feuchte:Windchill:Wind:
Aussen-T/F 1376 24-05-2022 19:00:00 17.7 C 10.26 g/m*3 17.7 C 4.8 km/h
1377 24-05-2022 19:05:00 17.6 C 10.2 g/m*3 17.6 C 4.8 km/h
1378 24-05-2022 19:10:00 17.4 C 9.93 g/m*3 17.4 C 11.3 km/h
1379 24-05-2022 19:15:00 17.2 C 10.25 g/m*3 17.2 C 8.1 km/h
1380 24-05-2022 19:20:00 17.1 C 9.9 g/m*3 17.1 C 4.8 km/h
1381 24-05-2022 19:25:00 16.8 C 9.87 g/m*3 16.8 C 14.5 km/h
1382 24-05-2022 19:30:00 16.4 C 9.77 g/m*3 16.4 C 17.7 km/h
1383 24-05-2022 19:35:00 16.2 C 9.52 g/m*3 16.2 C 4.8 km/h
1384 24-05-2022 19:40:00 15.9 C 9.48 g/m*3 15.9 C 12.9 km/h
1385 24-05-2022 19:45:00 15.8 C 9.69 g/m*3 15.8 C 8.1 km/h
1386 24-05-2022 19:50:00 15.7 C 9.37 g/m*3 15.7 C 8.1 km/h
1387 24-05-2022 19:55:00 15.7 C 9.5 g/m*3 15.7 C 8.1 km/h
1388 24-05-2022 20:00:00 15.6 C 9.31 g/m*3 15.6 C 8.1 km/h
1389 24-05-2022 20:05:00 15.4 C 9.46 g/m*3 15.4 C 6.4 km/h
1390 24-05-2022 20:10:00 15.4 C 9.46 g/m*3 15.4 C 3.2 km/h
1391 24-05-2022 20:15:00 15.3 C 9.53 g/m*3 15.3 C 4.8 km/h
1392 24-05-2022 20:20:00 15.3 C 9.79 g/m*3 15.3 C 3.2 km/h
1393 24-05-2022 20:25:00 15.2 C 9.61 g/m*3 15.2 C 3.2 km/h
1394 24-05-2022 20:30:00 15.1 C 9.55 g/m*3 15.1 C 3.2 km/h
1395 24-05-2022 20:35:00 14.9 C 9.56 g/m*3 14.9 C 8.1 km/h
1396 24-05-2022 20:40:00 14.8 C 9.63 g/m*3 14.8 C 4.8 km/h
1397 24-05-2022 20:45:00 14.6 C 9.64 g/m*3 14.6 C 4.8 km/h
1398 24-05-2022 20:50:00 14.3 C 9.46 g/m*3 14.3 C 4.8 km/h
1399 24-05-2022 20:55:00 14.1 C 9.59 g/m*3 14.1 C 6.4 km/h
1400 24-05-2022 21:00:00 13.9 C 9.59 g/m*3 13.9 C 1.6 km/h
Sensor: Nr:Datum:Temp:Abs-Feuchte:Windchill:Wind:
Aussen-T/F 1401 24-05-2022 21:05:00 13.8 C 9.65 g/m*3 13.8 C 3.2 km/h
1402 24-05-2022 21:10:00 13.6 C 9.53 g/m*3 13.6 C 3.2 km/h
1403 24-05-2022 21:15:00 13.4 C 9.53 g/m*3 13.4 C 0 km/h
1404 24-05-2022 21:20:00 13.2 C 9.53 g/m*3 13.2 C 0 km/h
1405 24-05-2022 21:25:00 13.1 C 9.59 g/m*3 13.1 C 0 km/h
1406 24-05-2022 21:30:00 12.8 C 9.41 g/m*3 12.8 C 0 km/h
1407 24-05-2022 21:35:00 12.6 C 9.29 g/m*3 12.6 C 0 km/h
1408 24-05-2022 21:40:00 12.4 C 9.29 g/m*3 12.4 C 0 km/h
1409 24-05-2022 21:45:00 12.2 C 9.17 g/m*3 12.2 C 0 km/h
1410 24-05-2022 21:50:00 12.1 C 9.22 g/m*3 12.1 C 3.2 km/h
1411 24-05-2022 21:55:00 11.9 C 9.21 g/m*3 11.9 C 4.8 km/h
1412 24-05-2022 22:00:00 11.9 C 9.21 g/m*3 11.9 C 6.4 km/h
1413 24-05-2022 22:05:00 11.8 C 9.16 g/m*3 11.8 C 4.8 km/h
1414 24-05-2022 22:10:00 11.8 C 9.26 g/m*3 11.8 C 3.2 km/h
1415 24-05-2022 22:15:00 11.8 C 9.26 g/m*3 11.8 C 0 km/h
1416 24-05-2022 22:20:00 11.7 C 9.2 g/m*3 11.7 C 1.6 km/h
1417 24-05-2022 22:25:00 11.7 C 9.2 g/m*3 11.7 C 0 km/h
1418 24-05-2022 22:30:00 11.7 C 9.2 g/m*3 11.7 C 0 km/h
1419 24-05-2022 22:35:00 11.6 C 9.25 g/m*3 11.6 C 0 km/h
1420 24-05-2022 22:40:00 11.6 C 9.25 g/m*3 11.6 C 0 km/h
1421 24-05-2022 22:45:00 11.6 C 9.25 g/m*3 11.6 C 0 km/h
1422 24-05-2022 22:50:00 11.6 C 9.25 g/m*3 11.6 C 0 km/h
1423 24-05-2022 22:55:00 11.5 C 9.3 g/m*3 11.5 C 0 km/h
1424 24-05-2022 23:00:00 11.5 C 9.3 g/m*3 11.5 C 0 km/h
1425 24-05-2022 23:05:00 11.5 C 9.3 g/m*3 11.5 C 0 km/h
Sensor: Nr:Datum:Temp:Abs-Feuchte:Windchill:Wind:
Aussen-T/F 1426 24-05-2022 23:10:00 11.6 C 9.46 g/m*3 11.6 C 0 km/h
1427 24-05-2022 23:15:00 11.6 C 9.46 g/m*3 11.6 C 0 km/h
1428 24-05-2022 23:20:00 11.6 C 9.46 g/m*3 11.6 C 0 km/h
1429 24-05-2022 23:25:00 11.6 C 9.46 g/m*3 11.6 C 0 km/h
1430 24-05-2022 23:30:00 11.6 C 9.46 g/m*3 11.6 C 0 km/h
1431 24-05-2022 23:35:00 11.6 C 9.46 g/m*3 11.6 C 0 km/h
1432 24-05-2022 23:40:00 11.5 C 9.3 g/m*3 11.5 C 0 km/h
1433 24-05-2022 23:45:00 11.4 C 9.24 g/m*3 11.4 C 0 km/h
1434 24-05-2022 23:50:00 11.3 C 9.18 g/m*3 11.3 C 0 km/h
1435 24-05-2022 23:55:00 11.3 C 9.28 g/m*3 11.3 C 0 km/h

Legende:
   Min
   Max


Maximal/Minimal-Werte vom 20.05.2022 - 24.05.2022

Sensor Min Max Avg
Temp
(Aussen-T/F)
8.8 °C
22-05-2022  06:00:00
26.8 °C
20-05-2022  16:15:00
17.02 °C
Abs-Feuchte
(Aussen-T/F)
8.23 g/m*3
22-05-2022  05:25:00
20.03 g/m*3
20-05-2022  15:35:00
11.59 g/m*3
Windchill
(Aussen-T/F)
8.73 C
21-05-2022  04:45:00
26.8 C
20-05-2022  16:15:00
16.98 C

Die Daten stammen von einer Davis Vantage Pro 2 Wetter-Station und werden unter Linux mit der Software wview2wettercgi und aufbereitet. Alle Angaben erfolgen ohne Gewähr für ihre Vollständigkeit oder Richtigkeit.
Kontakt: Rainer Krienke krienke@uni-koblenz.de . Meine Webseiten an der Uni Koblenz oder privat.
Version: $Revision: 0.78 $